Wetterdaten: Freitag, 15.05.2015
Datum Zeit Temp. Aussen +5cm Feuchte Auss Luftdruck Regen Sonnenschein Regendauer Solar Windben
15.05.2015 00:00 13,5 C 11,7 C 66 % 1010,2 hPa 0,0 l/m 0 min 0 min 0 W/m 12,6 km/h (3 Bft)
15.05.2015 00:02 13,5 C 11,7 C 66 % 1010,3 hPa 0,0 l/m 0 min 0 min 0 W/m 16,7 km/h (3 Bft)
15.05.2015 00:06 13,5 C 11,7 C 66 % 1010,3 hPa 0,0 l/m 0 min 0 min 0 W/m 18,8 km/h (3 Bft)
15.05.2015 00:08 13,5 C 11,7 C 66 % 1010,3 hPa 0,0 l/m 0 min 0 min 0 W/m 14,6 km/h (3 Bft)
15.05.2015 00:10 13,5 C 11,7 C 66 % 1010,3 hPa 0,0 l/m 0 min 0 min 0 W/m 12,6 km/h (3 Bft)
15.05.2015 00:12 13,5 C 11,7 C 66 % 1010,3 hPa 0,0 l/m 0 min 0 min 0 W/m 14,6 km/h (3 Bft)
15.05.2015 00:14 13,5 C 11,7 C 66 % 1010,4 hPa 0,0 l/m 0 min 0 min 0 W/m 18,8 km/h (3 Bft)
15.05.2015 00:16 13,5 C 11,7 C 66 % 1010,3 hPa 0,0 l/m 0 min 0 min 0 W/m 18,8 km/h (3 Bft)
15.05.2015 00:18 13,5 C 11,7 C 66 % 1010,4 hPa 0,0 l/m 0 min 0 min 0 W/m 20,9 km/h (4 Bft)
15.05.2015 00:20 13,5 C 11,1 C 66 % 1010,4 hPa 0,0 l/m 0 min 0 min 0 W/m 16,7 km/h (3 Bft)
15.05.2015 00:22 13,5 C 11,1 C 66 % 1010,4 hPa 0,0 l/m 0 min 0 min 0 W/m 12,6 km/h (3 Bft)
15.05.2015 00:24 13,5 C 11,7 C 66 % 1010,3 hPa 0,0 l/m 0 min 0 min 0 W/m 10,5 km/h (2 Bft)
15.05.2015 00:26 13,4 C 11,7 C 66 % 1010,3 hPa 0,0 l/m 0 min 0 min 0 W/m 12,6 km/h (3 Bft)
15.05.2015 00:28 13,4 C 11,7 C 66 % 1010,4 hPa 0,0 l/m 0 min 0 min 0 W/m 18,8 km/h (3 Bft)
15.05.2015 00:30 13,4 C 11,7 C 66 % 1010,4 hPa 0,0 l/m 0 min 0 min 0 W/m 14,6 km/h (3 Bft)
15.05.2015 00:32 13,4 C 11,7 C 67 % 1010,4 hPa 0,0 l/m 0 min 0 min 0 W/m 18,8 km/h (3 Bft)
15.05.2015 00:34 13,4 C 11,7 C 67 % 1010,5 hPa 0,0 l/m 0 min 0 min 0 W/m 18,8 km/h (3 Bft)
15.05.2015 00:36 13,4 C 11,1 C 66 % 1010,5 hPa 0,0 l/m 0 min 0 min 0 W/m 16,7 km/h (3 Bft)
15.05.2015 00:38 13,4 C 11,1 C 66 % 1010,5 hPa 0,0 l/m 0 min 0 min 0 W/m 16,7 km/h (3 Bft)
15.05.2015 00:40 13,4 C 11,1 C 67 % 1010,5 hPa 0,0 l/m 0 min 0 min 0 W/m 20,9 km/h (4 Bft)
15.05.2015 00:42 13,4 C 11,1 C 67 % 1010,4 hPa 0,0 l/m 0 min 0 min 0 W/m 18,8 km/h (3 Bft)
15.05.2015 00:44 13,4 C 11,1 C 67 % 1010,5 hPa 0,0 l/m 0 min 0 min 0 W/m 23,0 km/h (4 Bft)
15.05.2015 00:46 13,4 C 11,1 C 67 % 1010,5 hPa 0,0 l/m 0 min 0 min 0 W/m 16,7 km/h (3 Bft)
15.05.2015 00:48 13,4 C 11,1 C 67 % 1010,5 hPa 0,0 l/m 0 min 0 min 0 W/m 14,6 km/h (3 Bft)
15.05.2015 00:50 13,3 C 11,1 C 67 % 1010,6 hPa 0,0 l/m 0 min 0 min 0 W/m 14,6 km/h (3 Bft)
15.05.2015 00:52 13,3 C 11,1 C 67 % 1010,5 hPa 0,0 l/m 0 min 0 min 0 W/m 23,0 km/h (4 Bft)
15.05.2015 00:54 13,3 C 11,1 C 67 % 1010,5 hPa 0,0 l/m 0 min 0 min 0 W/m 20,9 km/h (4 Bft)
15.05.2015 00:56 13,3 C 11,1 C 67 % 1010,5 hPa 0,0 l/m 0 min 0 min 0 W/m 18,8 km/h (3 Bft)
15.05.2015 00:58 13,3 C 11,1 C 67 % 1010,4 hPa 0,0 l/m 0 min 2 min 0 W/m 27,2 km/h (4 Bft)
15.05.2015 01:00 13,3 C 11,1 C 67 % 1010,5 hPa 0,0 l/m 0 min 0 min 0 W/m 16,7 km/h (3 Bft)
15.05.2015 01:02 13,3 C 11,1 C 67 % 1010,5 hPa 0,0 l/m 0 min 0 min 0 W/m 14,6 km/h (3 Bft)
15.05.2015 01:04 13,3 C 11,1 C 67 % 1010,5 hPa 0,0 l/m 0 min 0 min 0 W/m 23,0 km/h (4 Bft)
15.05.2015 01:06 13,2 C 11,1 C 67 % 1010,5 hPa 0,0 l/m 0 min 0 min 0 W/m 14,6 km/h (3 Bft)
15.05.2015 01:08 13,2 C 11,1 C 67 % 1010,5 hPa 0,0 l/m 0 min 0 min 0 W/m 16,7 km/h (3 Bft)
15.05.2015 01:10 13,2 C 11,1 C 67 % 1010,5 hPa 0,0 l/m 0 min 0 min 0 W/m 18,8 km/h (3 Bft)
15.05.2015 01:12 13,2 C 11,1 C 67 % 1010,5 hPa 0,0 l/m 0 min 0 min 0 W/m 14,6 km/h (3 Bft)
15.05.2015 01:14 13,2 C 11,1 C 67 % 1010,4 hPa 0,0 l/m 0 min 0 min 0 W/m 25,1 km/h (4 Bft)
15.05.2015 01:16 13,2 C 11,1 C 67 % 1010,5 hPa 0,0 l/m 0 min 0 min 0 W/m 20,9 km/h (4 Bft)
15.05.2015 01:18 13,2 C 11,1 C 67 % 1010,5 hPa 0,0 l/m 0 min 0 min 0 W/m 16,7 km/h (3 Bft)
15.05.2015 01:20 13,1 C 11,1 C 67 % 1010,5 hPa 0,0 l/m 0 min 0 min 0 W/m 14,6 km/h (3 Bft)
15.05.2015 01:22 13,1 C 11,1 C 67 % 1010,5 hPa 0,0 l/m 0 min 2 min 0 W/m 16,7 km/h (3 Bft)
15.05.2015 01:24 13,1 C 11,1 C 67 % 1010,5 hPa 0,0 l/m 0 min 2 min 0 W/m 16,7 km/h (3 Bft)
15.05.2015 01:26 13,1 C 11,1 C 67 % 1010,4 hPa 0,0 l/m 0 min 2 min 0 W/m 20,9 km/h (4 Bft)
15.05.2015 01:28 13,1 C 11,1 C 68 % 1010,5 hPa 0,0 l/m 0 min 0 min 0 W/m 23,0 km/h (4 Bft)
15.05.2015 01:30 13,1 C 11,1 C 68 % 1010,5 hPa 0,0 l/m 0 min 0 min 0 W/m 18,8 km/h (3 Bft)
15.05.2015 01:32 13,0 C 11,1 C 67 % 1010,5 hPa 0,0 l/m 0 min 0 min 0 W/m 14,6 km/h (3 Bft)
15.05.2015 01:34 13,0 C 11,1 C 67 % 1010,5 hPa 0,0 l/m 0 min 0 min 0 W/m 18,8 km/h (3 Bft)
15.05.2015 01:36 13,0 C 11,1 C 67 % 1010,5 hPa 0,0 l/m 0 min 0 min 0 W/m 18,8 km/h (3 Bft)
15.05.2015 01:38 12,9 C 11,1 C 67 % 1010,6 hPa 0,0 l/m 0 min 0 min 0 W/m 20,9 km/h (4 Bft)
15.05.2015 01:40 12,9 C 11,1 C 67 % 1010,5 hPa 0,0 l/m 0 min 0 min 0 W/m 16,7 km/h (3 Bft)
15.05.2015 01:42 12,9 C 11,1 C 67 % 1010,6 hPa 0,0 l/m 0 min 0 min 0 W/m 16,7 km/h (3 Bft)
15.05.2015 01:44 12,9 C 11,1 C 67 % 1010,6 hPa 0,0 l/m 0 min 0 min 0 W/m 12,6 km/h (3 Bft)
15.05.2015 01:46 12,9 C 11,1 C 67 % 1010,6 hPa 0,0 l/m 0 min 0 min 0 W/m 12,6 km/h (3 Bft)
15.05.2015 01:48 12,9 C 11,1 C 67 % 1010,6 hPa 0,0 l/m 0 min 0 min 0 W/m 14,6 km/h (3 Bft)
15.05.2015 01:50 12,9 C 11,1 C 68 % 1010,6 hPa 0,0 l/m 0 min 0 min 0 W/m 20,9 km/h (4 Bft)
15.05.2015 01:52 12,8 C 11,1 C 68 % 1010,5 hPa 0,0 l/m 0 min 0 min 0 W/m 16,7 km/h (3 Bft)
15.05.2015 01:54 12,8 C 11,1 C 68 % 1010,5 hPa 0,0 l/m 0 min 0 min 0 W/m 12,6 km/h (3 Bft)
15.05.2015 01:56 12,8 C 11,1 C 68 % 1010,5 hPa 0,0 l/m 0 min 0 min 0 W/m 14,6 km/h (3 Bft)
15.05.2015 01:58 12,8 C 11,1 C 68 % 1010,5 hPa 0,0 l/m 0 min 0 min 0 W/m 12,6 km/h (3 Bft)
15.05.2015 02:00 12,8 C 11,1 C 68 % 1010,5 hPa 0,0 l/m 0 min 0 min 0 W/m 12,6 km/h (3 Bft)
15.05.2015 02:02 12,8 C 11,1 C 68 % 1010,6 hPa 0,0 l/m 0 min 0 min 0 W/m 16,7 km/h (3 Bft)
15.05.2015 02:04 12,8 C 11,1 C 68 % 1010,6 hPa 0,0 l/m 0 min 0 min 0 W/m 14,6 km/h (3 Bft)
15.05.2015 02:06 12,8 C 11,1 C 69 % 1010,6 hPa 0,0 l/m 0 min 0 min 0 W/m 8,4 km/h (2 Bft)
15.05.2015 02:08 12,7 C 11,1 C 69 % 1010,6 hPa 0,0 l/m 0 min 0 min 0 W/m 10,5 km/h (2 Bft)
15.05.2015 02:10 12,7 C 11,1 C 69 % 1010,6 hPa 0,0 l/m 0 min 0 min 0 W/m 10,5 km/h (2 Bft)
15.05.2015 02:12 12,7 C 11,1 C 69 % 1010,6 hPa 0,0 l/m 0 min 0 min 0 W/m 14,6 km/h (3 Bft)
15.05.2015 02:14 12,7 C 11,1 C 69 % 1010,6 hPa 0,0 l/m 0 min 0 min 0 W/m 12,6 km/h (3 Bft)
15.05.2015 02:16 12,7 C 11,1 C 69 % 1010,6 hPa 0,0 l/m 0 min 0 min 0 W/m 18,8 km/h (3 Bft)
15.05.2015 02:18 12,7 C 11,1 C 69 % 1010,7 hPa 0,0 l/m 0 min 0 min 0 W/m 14,6 km/h (3 Bft)
15.05.2015 02:20 12,7 C 11,1 C 69 % 1010,7 hPa 0,0 l/m 0 min 0 min 0 W/m 16,7 km/h (3 Bft)
15.05.2015 02:22 12,6 C 11,1 C 69 % 1010,7 hPa 0,0 l/m 0 min 0 min 0 W/m 16,7 km/h (3 Bft)
15.05.2015 02:24 12,6 C 11,1 C 69 % 1010,7 hPa 0,0 l/m 0 min 0 min 0 W/m 14,6 km/h (3 Bft)
15.05.2015 02:26 12,6 C 11,1 C 69 % 1010,7 hPa 0,0 l/m 0 min 0 min 0 W/m 14,6 km/h (3 Bft)
15.05.2015 02:28 12,6 C 11,1 C 69 % 1010,7 hPa 0,0 l/m 0 min 0 min 0 W/m 18,8 km/h (3 Bft)
15.05.2015 02:30 12,6 C 11,1 C 70 % 1010,6 hPa 0,0 l/m 0 min 0 min 0 W/m 16,7 km/h (3 Bft)
15.05.2015 02:32 12,5 C 11,1 C 70 % 1010,7 hPa 0,0 l/m 0 min 0 min 0 W/m 16,7 km/h (3 Bft)
15.05.2015 02:34 12,5 C 11,1 C 70 % 1010,7 hPa 0,0 l/m 0 min 0 min 0 W/m 14,6 km/h (3 Bft)
15.05.2015 02:36 12,5 C 11,1 C 70 % 1010,7 hPa 0,0 l/m 0 min 0 min 0 W/m 12,6 km/h (3 Bft)
15.05.2015 02:38 12,5 C 11,1 C 70 % 1010,7 hPa 0,0 l/m 0 min 0 min 0 W/m 8,4 km/h (2 Bft)
15.05.2015 02:40 12,4 C 11,1 C 70 % 1010,7 hPa 0,0 l/m 0 min 0 min 0 W/m 12,6 km/h (3 Bft)
15.05.2015 02:42 12,4 C 11,1 C 70 % 1010,7 hPa 0,0 l/m 0 min 0 min 0 W/m 14,6 km/h (3 Bft)
15.05.2015 02:44 12,4 C 11,1 C 70 % 1010,7 hPa 0,0 l/m 0 min 0 min 0 W/m 16,7 km/h (3 Bft)
15.05.2015 02:46 12,4 C 11,1 C 70 % 1010,7 hPa 0,0 l/m 0 min 0 min 0 W/m 14,6 km/h (3 Bft)
15.05.2015 02:48 12,4 C 10,6 C 70 % 1010,6 hPa 0,0 l/m 0 min 0 min 0 W/m 16,7 km/h (3 Bft)
15.05.2015 02:50 12,3 C 10,6 C 70 % 1010,7 hPa 0,0 l/m 0 min 0 min 0 W/m 18,8 km/h (3 Bft)
15.05.2015 02:52 12,3 C 10,6 C 70 % 1010,7 hPa 0,0 l/m 0 min 0 min 0 W/m 18,8 km/h (3 Bft)
15.05.2015 02:54 12,3 C 10,6 C 70 % 1010,7 hPa 0,0 l/m 0 min 0 min 0 W/m 23,0 km/h (4 Bft)
15.05.2015 02:56 12,3 C 10,6 C 70 % 1010,7 hPa 0,0 l/m 0 min 0 min 0 W/m 14,6 km/h (3 Bft)
15.05.2015 02:58 12,3 C 10,6 C 71 % 1010,7 hPa 0,0 l/m 0 min 0 min 0 W/m 12,6 km/h (3 Bft)
15.05.2015 03:00 12,3 C 10,6 C 71 % 1010,6 hPa 0,0 l/m 0 min 0 min 0 W/m 16,7 km/h (3 Bft)
15.05.2015 03:02 12,3 C 10,6 C 71 % 1010,6 hPa 0,0 l/m 0 min 0 min 0 W/m 14,6 km/h (3 Bft)
15.05.2015 03:04 12,2 C 10,6 C 71 % 1010,7 hPa 0,0 l/m 0 min 0 min 0 W/m 12,6 km/h (3 Bft)
15.05.2015 03:06 12,2 C 10,6 C 71 % 1010,7 hPa 0,0 l/m 0 min 0 min 0 W/m 10,5 km/h (2 Bft)
15.05.2015 03:08 12,2 C 10,6 C 71 % 1010,6 hPa 0,0 l/m 0 min 0 min 0 W/m 10,5 km/h (2 Bft)
15.05.2015 03:10 12,2 C 10,6 C 71 % 1010,6 hPa 0,0 l/m 0 min 0 min 0 W/m 12,6 km/h (3 Bft)
15.05.2015 03:12 12,2 C 10,6 C 71 % 1010,6 hPa 0,0 l/m 0 min 0 min 0 W/m 14,6 km/h (3 Bft)
15.05.2015 03:14 12,2 C 10,6 C 71 % 1010,6 hPa 0,0 l/m 0 min 0 min 0 W/m 18,8 km/h (3 Bft)
15.05.2015 03:16 12,2 C 10,6 C 71 % 1010,5 hPa 0,0 l/m 0 min 0 min 0 W/m 16,7 km/h (3 Bft)
15.05.2015 03:18 12,1 C 10,6 C 71 % 1010,6 hPa 0,0 l/m 0 min 0 min 0 W/m 18,8 km/h (3 Bft)
15.05.2015 03:20 12,1 C 10,6 C 71 % 1010,6 hPa 0,0 l/m 0 min 0 min 0 W/m 18,8 km/h (3 Bft)
15.05.2015 03:22 12,1 C 10,6 C 71 % 1010,6 hPa 0,0 l/m 0 min 0 min 0 W/m 12,6 km/h (3 Bft)
15.05.2015 03:24 12,1 C 10,6 C 71 % 1010,6 hPa 0,0 l/m 0 min 0 min 0 W/m 18,8 km/h (3 Bft)
15.05.2015 03:26 12,0 C 10,6 C 71 % 1010,6 hPa 0,0 l/m 0 min 0 min 0 W/m 16,7 km/h (3 Bft)
15.05.2015 03:28 12,0 C 10,6 C 71 % 1010,7 hPa 0,0 l/m 0 min 0 min 0 W/m 16,7 km/h (3 Bft)
15.05.2015 03:30 11,9 C 10,6 C 71 % 1010,7 hPa 0,0 l/m 0 min 0 min 0 W/m 14,6 km/h (3 Bft)
15.05.2015 03:32 11,9 C 10,6 C 71 % 1010,7 hPa 0,0 l/m 0 min 0 min 0 W/m 16,7 km/h (3 Bft)
15.05.2015 03:34 11,9 C 10,6 C 71 % 1010,7 hPa 0,0 l/m 0 min 0 min 0 W/m 18,8 km/h (3 Bft)
15.05.2015 03:36 11,9 C 10,6 C 72 % 1010,8 hPa 0,0 l/m 0 min 0 min 0 W/m 20,9 km/h (4 Bft)
15.05.2015 03:38 11,8 C 10,6 C 72 % 1010,7 hPa 0,0 l/m 0 min 0 min 0 W/m 14,6 km/h (3 Bft)
15.05.2015 03:40 11,8 C 10,6 C 72 % 1010,8 hPa 0,0 l/m 0 min 0 min 0 W/m 16,7 km/h (3 Bft)
15.05.2015 03:42 11,8 C 10,6 C 72 % 1010,8 hPa 0,0 l/m 0 min 0 min 0 W/m 18,8 km/h (3 Bft)
15.05.2015 03:44 11,8 C 10,6 C 72 % 1010,8 hPa 0,0 l/m 0 min 0 min 0 W/m 20,9 km/h (4 Bft)
15.05.2015 03:46 11,7 C 10,6 C 72 % 1010,9 hPa 0,0 l/m 0 min 0 min 0 W/m 23,0 km/h (4 Bft)
15.05.2015 03:48 11,7 C 10,6 C 72 % 1010,9 hPa 0,0 l/m 0 min 0 min 0 W/m 25,1 km/h (4 Bft)
15.05.2015 03:50 11,7 C 10,6 C 72 % 1010,9 hPa 0,0 l/m 0 min 0 min 0 W/m 14,6 km/h (3 Bft)
15.05.2015 03:52 11,7 C 10,6 C 72 % 1010,9 hPa 0,0 l/m 0 min 0 min 0 W/m 20,9 km/h (4 Bft)
15.05.2015 03:54 11,7 C 10,6 C 72 % 1010,9 hPa 0,0 l/m 0 min 0 min 0 W/m 20,9 km/h (4 Bft)
15.05.2015 03:56 11,6 C 10,6 C 72 % 1010,9 hPa 0,0 l/m 0 min 0 min 0 W/m 18,8 km/h (3 Bft)
15.05.2015 03:58 11,6 C 10,0 C 72 % 1011,0 hPa 0,0 l/m 0 min 0 min 0 W/m 23,0 km/h (4 Bft)
15.05.2015 04:00 11,6 C 10,0 C 72 % 1011,0 hPa 0,0 l/m 0 min 0 min 0 W/m 23,0 km/h (4 Bft)
15.05.2015 04:02 11,5 C 10,0 C 72 % 1011,0 hPa 0,0 l/m 0 min 0 min 0 W/m 25,1 km/h (4 Bft)
15.05.2015 04:04 11,5 C 10,0 C 72 % 1011,1 hPa 0,0 l/m 0 min 0 min 0 W/m 23,0 km/h (4 Bft)
15.05.2015 04:06 11,5 C 10,0 C 72 % 1011,1 hPa 0,0 l/m 0 min 0 min 0 W/m 23,0 km/h (4 Bft)
15.05.2015 04:08 11,4 C 10,0 C 72 % 1011,1 hPa 0,0 l/m 0 min 0 min 0 W/m 23,0 km/h (4 Bft)
15.05.2015 04:10 11,4 C 10,0 C 72 % 1011,2 hPa 0,0 l/m 0 min 0 min 0 W/m 18,8 km/h (3 Bft)
15.05.2015 04:12 11,4 C 10,0 C 72 % 1011,1 hPa 0,0 l/m 0 min 0 min 0 W/m 25,1 km/h (4 Bft)
15.05.2015 04:14 11,4 C 10,0 C 72 % 1011,1 hPa 0,0 l/m 0 min 0 min 0 W/m 20,9 km/h (4 Bft)
15.05.2015 04:16 11,4 C 10,0 C 72 % 1011,1 hPa 0,0 l/m 0 min 0 min 0 W/m 16,7 km/h (3 Bft)
15.05.2015 04:18 11,4 C 10,0 C 72 % 1011,1 hPa 0,0 l/m 0 min 0 min 0 W/m 23,0 km/h (4 Bft)
15.05.2015 04:20 11,4 C 10,0 C 72 % 1011,0 hPa 0,0 l/m 0 min 0 min 0 W/m 20,9 km/h (4 Bft)
15.05.2015 04:22 11,3 C 10,0 C 72 % 1010,9 hPa 0,0 l/m 0 min 0 min 0 W/m 31,4 km/h (5 Bft)
15.05.2015 04:24 11,3 C 10,0 C 72 % 1011,0 hPa 0,0 l/m 0 min 0 min 0 W/m 25,1 km/h (4 Bft)
15.05.2015 04:26 11,3 C 10,0 C 72 % 1011,0 hPa 0,0 l/m 0 min 0 min 0 W/m 20,9 km/h (4 Bft)
15.05.2015 04:28 11,3 C 10,0 C 73 % 1011,0 hPa 0,0 l/m 0 min 0 min 0 W/m 25,1 km/h (4 Bft)
15.05.2015 04:30 11,3 C 10,0 C 73 % 1011,1 hPa 0,0 l/m 0 min 0 min 0 W/m 16,7 km/h (3 Bft)
15.05.2015 04:32 11,2 C 10,0 C 73 % 1011,1 hPa 0,0 l/m 0 min 0 min 0 W/m 16,7 km/h (3 Bft)
15.05.2015 04:34 11,2 C 10,0 C 73 % 1011,1 hPa 0,0 l/m 0 min 0 min 0 W/m 16,7 km/h (3 Bft)
15.05.2015 04:36 11,2 C 10,0 C 73 % 1011,2 hPa 0,0 l/m 0 min 0 min 0 W/m 14,6 km/h (3 Bft)
15.05.2015 04:38 11,2 C 10,0 C 73 % 1011,3 hPa 0,0 l/m 0 min 0 min 0 W/m 16,7 km/h (3 Bft)
15.05.2015 04:40 11,2 C 10,0 C 73 % 1011,3 hPa 0,0 l/m 0 min 0 min 0 W/m 14,6 km/h (3 Bft)
15.05.2015 04:42 11,2 C 10,0 C 73 % 1011,5 hPa 0,0 l/m 0 min 0 min 0 W/m 16,7 km/h (3 Bft)
15.05.2015 04:44 11,2 C 10,0 C 74 % 1011,6 hPa 0,0 l/m 0 min 0 min 0 W/m 12,6 km/h (3 Bft)
15.05.2015 04:46 11,2 C 10,0 C 74 % 1011,7 hPa 0,0 l/m 0 min 0 min 0 W/m 12,6 km/h (3 Bft)
15.05.2015 04:48 11,2 C 10,0 C 74 % 1011,6 hPa 0,0 l/m 0 min 0 min 0 W/m 10,5 km/h (2 Bft)
15.05.2015 04:50 11,2 C 10,0 C 74 % 1011,6 hPa 0,0 l/m 0 min 0 min 0 W/m 8,4 km/h (2 Bft)
15.05.2015 04:52 11,2 C 10,0 C 74 % 1011,6 hPa 0,0 l/m 0 min 0 min 0 W/m 16,7 km/h (3 Bft)
15.05.2015 04:54 11,2 C 10,0 C 74 % 1011,7 hPa 0,0 l/m 0 min 0 min 0 W/m 16,7 km/h (3 Bft)
15.05.2015 04:56 11,1 C 10,0 C 74 % 1011,7 hPa 0,0 l/m 0 min 0 min 0 W/m 14,6 km/h (3 Bft)
15.05.2015 04:58 11,1 C 10,0 C 74 % 1011,7 hPa 0,0 l/m 0 min 0 min 0 W/m 12,6 km/h (3 Bft)
15.05.2015 05:00 11,1 C 10,0 C 74 % 1011,8 hPa 0,0 l/m 0 min 0 min 0 W/m 14,6 km/h (3 Bft)
15.05.2015 05:02 11,1 C 10,0 C 74 % 1011,8 hPa 0,0 l/m 0 min 0 min 0 W/m 16,7 km/h (3 Bft)
15.05.2015 05:04 11,1 C 10,0 C 74 % 1011,8 hPa 0,0 l/m 0 min 0 min 0 W/m 14,6 km/h (3 Bft)
15.05.2015 05:06 11,1 C 10,0 C 74 % 1011,8 hPa 0,0 l/m 0 min 0 min 0 W/m 20,9 km/h (4 Bft)
15.05.2015 05:08 11,1 C 10,0 C 74 % 1011,8 hPa 0,0 l/m 0 min 0 min 0 W/m 18,8 km/h (3 Bft)
15.05.2015 05:10 11,0 C 10,0 C 74 % 1011,8 hPa 0,0 l/m 0 min 0 min 0 W/m 14,6 km/h (3 Bft)
15.05.2015 05:12 11,0 C 10,0 C 74 % 1011,8 hPa 0,0 l/m 0 min 0 min 0 W/m 18,8 km/h (3 Bft)
15.05.2015 05:14 10,9 C 10,0 C 74 % 1012,0 hPa 0,0 l/m 0 min 0 min 0 W/m 20,9 km/h (4 Bft)
15.05.2015 05:16 10,9 C 10,0 C 74 % 1012,1 hPa 0,0 l/m 0 min 0 min 0 W/m 16,7 km/h (3 Bft)
15.05.2015 05:18 10,9 C 10,0 C 74 % 1012,1 hPa 0,0 l/m 0 min 0 min 0 W/m 16,7 km/h (3 Bft)
15.05.2015 05:20 10,9 C 10,0 C 74 % 1012,1 hPa 0,0 l/m 0 min 0 min 0 W/m 12,6 km/h (3 Bft)
15.05.2015 05:22 10,9 C 10,0 C 75 % 1012,2 hPa 0,0 l/m 0 min 0 min 0 W/m 14,6 km/h (3 Bft)
15.05.2015 05:24 10,9 C 10,0 C 75 % 1012,1 hPa 0,0 l/m 0 min 0 min 0 W/m 16,7 km/h (3 Bft)
15.05.2015 05:26 10,9 C 10,0 C 75 % 1012,2 hPa 0,0 l/m 0 min 0 min 0 W/m 16,7 km/h (3 Bft)
15.05.2015 05:28 10,8 C 10,0 C 75 % 1012,2 hPa 0,0 l/m 0 min 0 min 0 W/m 14,6 km/h (3 Bft)
15.05.2015 05:30 10,8 C 10,0 C 75 % 1012,2 hPa 0,0 l/m 0 min 0 min 0 W/m 16,7 km/h (3 Bft)
15.05.2015 05:32 10,8 C 10,0 C 75 % 1012,2 hPa 0,0 l/m 0 min 0 min 0 W/m 10,5 km/h (2 Bft)
15.05.2015 05:34 10,8 C 10,0 C 75 % 1012,3 hPa 0,0 l/m 0 min 0 min 0 W/m 14,6 km/h (3 Bft)
15.05.2015 05:36 10,8 C 10,0 C 75 % 1012,3 hPa 0,0 l/m 0 min 0 min 0 W/m 10,5 km/h (2 Bft)
15.05.2015 05:38 10,7 C 10,0 C 75 % 1012,4 hPa 0,0 l/m 0 min 0 min 0 W/m 10,5 km/h (2 Bft)
15.05.2015 05:40 10,7 C 10,0 C 75 % 1012,4 hPa 0,0 l/m 0 min 0 min 0 W/m 10,5 km/h (2 Bft)
15.05.2015 05:42 10,7 C 10,0 C 76 % 1012,4 hPa 0,0 l/m 0 min 0 min 0 W/m 12,6 km/h (3 Bft)
15.05.2015 05:44 10,7 C 9,4 C 76 % 1012,4 hPa 0,0 l/m 0 min 0 min 0 W/m 16,7 km/h (3 Bft)
15.05.2015 05:46 10,6 C 9,4 C 76 % 1012,4 hPa 0,0 l/m 0 min 0 min 0 W/m 14,6 km/h (3 Bft)
15.05.2015 05:48 10,6 C 9,4 C 76 % 1012,3 hPa 0,0 l/m 0 min 0 min 0 W/m 14,6 km/h (3 Bft)
15.05.2015 05:50 10,6 C 9,4 C 76 % 1012,4 hPa 0,0 l/m 0 min 0 min 0 W/m 16,7 km/h (3 Bft)
15.05.2015 05:52 10,5 C 9,4 C 76 % 1012,4 hPa 0,0 l/m 0 min 0 min 0 W/m 12,6 km/h (3 Bft)
15.05.2015 05:54 10,5 C 9,4 C 76 % 1012,4 hPa 0,0 l/m 0 min 0 min 0 W/m 12,6 km/h (3 Bft)
15.05.2015 05:56 10,4 C 9,4 C 76 % 1012,4 hPa 0,0 l/m 0 min 0 min 0 W/m 14,6 km/h (3 Bft)
15.05.2015 05:58 10,4 C 9,4 C 77 % 1012,5 hPa 0,0 l/m 0 min 0 min 0 W/m 14,6 km/h (3 Bft)
15.05.2015 06:00 10,4 C 9,4 C 77 % 1012,4 hPa 0,0 l/m 0 min 0 min 0 W/m 18,8 km/h (3 Bft)
15.05.2015 06:02 10,3 C 9,4 C 77 % 1012,5 hPa 0,0 l/m 0 min 0 min 3 W/m 20,9 km/h (4 Bft)
15.05.2015 06:06 10,2 C 9,4 C 78 % 1012,4 hPa 0,0 l/m 0 min 0 min 4 W/m 20,9 km/h (4 Bft)
15.05.2015 06:08 10,2 C 9,4 C 78 % 1012,5 hPa 0,0 l/m 0 min 0 min 5 W/m 16,7 km/h (3 Bft)
15.05.2015 06:10 10,1 C 9,4 C 78 % 1012,5 hPa 0,0 l/m 0 min 0 min 5 W/m 12,6 km/h (3 Bft)
15.05.2015 06:12 10,1 C 9,4 C 79 % 1012,5 hPa 0,0 l/m 0 min 0 min 5 W/m 18,8 km/h (3 Bft)
15.05.2015 06:14 10,1 C 9,4 C 79 % 1012,5 hPa 0,0 l/m 0 min 0 min 6 W/m 18,8 km/h (3 Bft)
15.05.2015 06:16 10,0 C 9,4 C 79 % 1012,5 hPa 0,0 l/m 0 min 0 min 7 W/m 20,9 km/h (4 Bft)
15.05.2015 06:18 9,9 C 9,4 C 79 % 1012,5 hPa 0,0 l/m 0 min 0 min 9 W/m 25,1 km/h (4 Bft)
15.05.2015 06:20 9,9 C 9,4 C 80 % 1012,5 hPa 0,0 l/m 0 min 0 min 10 W/m 20,9 km/h (4 Bft)
15.05.2015 06:22 9,8 C 9,4 C 80 % 1012,7 hPa 0,0 l/m 0 min 0 min 11 W/m 23,0 km/h (4 Bft)
15.05.2015 06:24 9,8 C 9,4 C 80 % 1012,6 hPa 0,0 l/m 0 min 0 min 12 W/m 18,8 km/h (3 Bft)
15.05.2015 06:26 9,8 C 9,4 C 80 % 1012,7 hPa 0,0 l/m 0 min 0 min 13 W/m 23,0 km/h (4 Bft)
15.05.2015 06:28 9,7 C 8,9 C 80 % 1012,7 hPa 0,0 l/m 0 min 0 min 16 W/m 16,7 km/h (3 Bft)
15.05.2015 06:30 9,7 C 8,9 C 81 % 1012,7 hPa 0,0 l/m 0 min 0 min 19 W/m 14,6 km/h (3 Bft)
15.05.2015 06:32 9,7 C 8,9 C 81 % 1012,7 hPa 0,0 l/m 0 min 0 min 21 W/m 18,8 km/h (3 Bft)
15.05.2015 06:34 9,6 C 8,9 C 81 % 1012,8 hPa 0,0 l/m 0 min 0 min 25 W/m 18,8 km/h (3 Bft)
15.05.2015 06:36 9,6 C 8,9 C 81 % 1012,9 hPa 0,0 l/m 0 min 0 min 26 W/m 20,9 km/h (4 Bft)
15.05.2015 06:38 9,6 C 8,9 C 81 % 1013,0 hPa 0,0 l/m 0 min 0 min 26 W/m 18,8 km/h (3 Bft)
15.05.2015 06:40 9,5 C 8,9 C 82 % 1013,0 hPa 0,0 l/m 0 min 0 min 27 W/m 23,0 km/h (4 Bft)
15.05.2015 06:42 9,5 C 8,9 C 82 % 1013,0 hPa 0,0 l/m 0 min 0 min 29 W/m 16,7 km/h (3 Bft)
15.05.2015 06:44 9,4 C 8,9 C 82 % 1013,0 hPa 0,0 l/m 0 min 0 min 30 W/m 18,8 km/h (3 Bft)
15.05.2015 06:46 9,4 C 8,9 C 82 % 1013,1 hPa 0,0 l/m 0 min 0 min 30 W/m 16,7 km/h (3 Bft)
15.05.2015 06:48 9,4 C 8,9 C 82 % 1013,2 hPa 0,0 l/m 0 min 0 min 28 W/m 20,9 km/h (4 Bft)
15.05.2015 06:50 9,4 C 8,9 C 82 % 1013,2 hPa 0,0 l/m 0 min 0 min 26 W/m 16,7 km/h (3 Bft)
15.05.2015 06:52 9,4 C 8,9 C 82 % 1013,2 hPa 0,0 l/m 0 min 0 min 28 W/m 16,7 km/h (3 Bft)
15.05.2015 06:54 9,3 C 8,9 C 82 % 1013,3 hPa 0,0 l/m 0 min 0 min 31 W/m 18,8 km/h (3 Bft)
15.05.2015 06:56 9,3 C 8,9 C 83 % 1013,3 hPa 0,0 l/m 0 min 0 min 35 W/m 18,8 km/h (3 Bft)
15.05.2015 06:58 9,3 C 8,9 C 83 % 1013,3 hPa 0,0 l/m 0 min 0 min 38 W/m 20,9 km/h (4 Bft)
15.05.2015 07:00 9,3 C 8,9 C 83 % 1013,4 hPa 0,0 l/m 0 min 0 min 39 W/m 20,9 km/h (4 Bft)
15.05.2015 07:02 9,2 C 8,9 C 83 % 1013,3 hPa 0,0 l/m 0 min 0 min 40 W/m 18,8 km/h (3 Bft)
15.05.2015 07:04 9,2 C 8,9 C 83 % 1013,4 hPa 0,0 l/m 0 min 0 min 40 W/m 18,8 km/h (3 Bft)
15.05.2015 07:06 9,2 C 8,9 C 83 % 1013,4 hPa 0,0 l/m 0 min 0 min 39 W/m 16,7 km/h (3 Bft)
15.05.2015 07:08 9,2 C 8,9 C 83 % 1013,5 hPa 0,0 l/m 0 min 0 min 39 W/m 23,0 km/h (4 Bft)
15.05.2015 07:10 9,2 C 8,9 C 83 % 1013,6 hPa 0,0 l/m 0 min 0 min 38 W/m 14,6 km/h (3 Bft)
15.05.2015 07:12 9,2 C 8,9 C 83 % 1013,7 hPa 0,0 l/m 0 min 0 min 35 W/m 16,7 km/h (3 Bft)
15.05.2015 07:14 9,2 C 8,9 C 83 % 1013,8 hPa 0,0 l/m 0 min 0 min 33 W/m 16,7 km/h (3 Bft)
15.05.2015 07:16 9,2 C 8,9 C 83 % 1013,9 hPa 0,0 l/m 0 min 0 min 32 W/m 18,8 km/h (3 Bft)
15.05.2015 07:18 9,2 C 8,9 C 83 % 1013,9 hPa 0,0 l/m 0 min 0 min 32 W/m 16,7 km/h (3 Bft)
15.05.2015 07:20 9,1 C 8,9 C 83 % 1013,9 hPa 0,0 l/m 0 min 0 min 33 W/m 20,9 km/h (4 Bft)
15.05.2015 07:22 9,1 C 8,9 C 83 % 1014,0 hPa 0,0 l/m 0 min 0 min 33 W/m 14,6 km/h (3 Bft)
15.05.2015 07:24 9,1 C 8,9 C 83 % 1014,0 hPa 0,0 l/m 0 min 0 min 32 W/m 18,8 km/h (3 Bft)
15.05.2015 07:26 9,1 C 8,9 C 84 % 1014,1 hPa 0,0 l/m 0 min 0 min 31 W/m 14,6 km/h (3 Bft)
15.05.2015 07:28 9,1 C 8,9 C 84 % 1014,1 hPa 0,0 l/m 0 min 0 min 30 W/m 8,4 km/h (2 Bft)
15.05.2015 07:30 9,1 C 8,9 C 84 % 1014,1 hPa 0,0 l/m 0 min 0 min 30 W/m 14,6 km/h (3 Bft)
15.05.2015 07:32 9,1 C 8,9 C 84 % 1014,1 hPa 0,0 l/m 0 min 0 min 30 W/m 12,6 km/h (3 Bft)
15.05.2015 07:34 9,1 C 8,9 C 84 % 1014,1 hPa 0,0 l/m 0 min 0 min 30 W/m 16,7 km/h (3 Bft)
15.05.2015 07:36 9,1 C 8,9 C 84 % 1014,2 hPa 0,0 l/m 0 min 0 min 30 W/m 16,7 km/h (3 Bft)
15.05.2015 07:38 9,0 C 8,9 C 84 % 1014,2 hPa 0,0 l/m 0 min 0 min 30 W/m 14,6 km/h (3 Bft)
15.05.2015 07:40 9,0 C 8,9 C 84 % 1014,3 hPa 0,0 l/m 0 min 0 min 30 W/m 16,7 km/h (3 Bft)
15.05.2015 07:42 9,0 C 8,9 C 84 % 1014,2 hPa 0,0 l/m 0 min 0 min 30 W/m 16,7 km/h (3 Bft)
15.05.2015 07:44 9,0 C 8,9 C 84 % 1014,3 hPa 0,0 l/m 0 min 0 min 32 W/m 18,8 km/h (3 Bft)
15.05.2015 07:46 9,0 C 8,9 C 84 % 1014,2 hPa 0,0 l/m 0 min 0 min 33 W/m 14,6 km/h (3 Bft)
15.05.2015 07:48 8,9 C 8,9 C 84 % 1014,3 hPa 0,0 l/m 0 min 0 min 33 W/m 14,6 km/h (3 Bft)
15.05.2015 07:50 8,9 C 8,9 C 84 % 1014,3 hPa 0,0 l/m 0 min 0 min 34 W/m 20,9 km/h (4 Bft)
15.05.2015 07:52 8,9 C 8,9 C 84 % 1014,4 hPa 0,0 l/m 0 min 0 min 35 W/m 16,7 km/h (3 Bft)
15.05.2015 07:54 8,9 C 8,9 C 84 % 1014,4 hPa 0,0 l/m 0 min 0 min 38 W/m 12,6 km/h (3 Bft)
15.05.2015 07:56 8,9 C 8,9 C 84 % 1014,4 hPa 0,0 l/m 0 min 0 min 39 W/m 16,7 km/h (3 Bft)
15.05.2015 07:58 8,9 C 8,9 C 84 % 1014,4 hPa 0,0 l/m 0 min 0 min 41 W/m 14,6 km/h (3 Bft)
15.05.2015 08:00 8,8 C 8,9 C 84 % 1014,4 hPa 0,0 l/m 0 min 0 min 44 W/m 23,0 km/h (4 Bft)
15.05.2015 08:02 8,8 C 8,9 C 84 % 1014,4 hPa 0,0 l/m 0 min 0 min 46 W/m 18,8 km/h (3 Bft)
15.05.2015 08:04 8,8 C 8,9 C 84 % 1014,5 hPa 0,0 l/m 0 min 0 min 47 W/m 10,5 km/h (2 Bft)
15.05.2015 08:06 8,8 C 8,9 C 84 % 1014,5 hPa 0,0 l/m 0 min 0 min 49 W/m 14,6 km/h (3 Bft)
15.05.2015 08:08 8,8 C 8,9 C 84 % 1014,5 hPa 0,0 l/m 0 min 0 min 51 W/m 18,8 km/h (3 Bft)
15.05.2015 08:10 8,8 C 8,9 C 84 % 1014,5 hPa 0,0 l/m 0 min 0 min 53 W/m 20,9 km/h (4 Bft)
15.05.2015 08:12 8,8 C 8,9 C 84 % 1014,6 hPa 0,0 l/m 0 min 0 min 57 W/m 18,8 km/h (3 Bft)
15.05.2015 08:14 8,8 C 8,9 C 84 % 1014,5 hPa 0,0 l/m 0 min 0 min 62 W/m 18,8 km/h (3 Bft)
15.05.2015 08:16 8,8 C 8,9 C 84 % 1014,6 hPa 0,0 l/m 0 min 0 min 68 W/m 12,6 km/h (3 Bft)
15.05.2015 08:18 8,8 C 8,9 C 84 % 1014,6 hPa 0,0 l/m 0 min 0 min 72 W/m 12,6 km/h (3 Bft)
15.05.2015 08:20 8,7 C 8,9 C 84 % 1014,7 hPa 0,0 l/m 0 min 0 min 76 W/m 12,6 km/h (3 Bft)
15.05.2015 08:22 8,7 C 8,9 C 84 % 1014,7 hPa 0,0 l/m 0 min 0 min 81 W/m 20,9 km/h (4 Bft)
15.05.2015 08:24 8,8 C 8,9 C 84 % 1014,7 hPa 0,0 l/m 0 min 0 min 84 W/m 14,6 km/h (3 Bft)
15.05.2015 08:26 8,8 C 8,9 C 84 % 1014,7 hPa 0,0 l/m 0 min 0 min 86 W/m 14,6 km/h (3 Bft)
15.05.2015 08:28 8,8 C 8,9 C 84 % 1014,6 hPa 0,0 l/m 0 min 0 min 90 W/m 20,9 km/h (4 Bft)
15.05.2015 08:30 8,8 C 8,9 C 84 % 1014,7 hPa 0,0 l/m 0 min 0 min 96 W/m 18,8 km/h (3 Bft)
15.05.2015 08:32 8,8 C 8,9 C 84 % 1014,7 hPa 0,0 l/m 0 min 0 min 101 W/m 23,0 km/h (4 Bft)
15.05.2015 08:34 8,8 C 8,9 C 84 % 1014,7 hPa 0,0 l/m 0 min 0 min 104 W/m 20,9 km/h (4 Bft)
15.05.2015 08:36 8,8 C 8,9 C 84 % 1014,8 hPa 0,0 l/m 0 min 0 min 106 W/m 14,6 km/h (3 Bft)
15.05.2015 08:38 8,8 C 9,4 C 84 % 1014,9 hPa 0,0 l/m 0 min 0 min 109 W/m 14,6 km/h (3 Bft)
15.05.2015 08:40 8,9 C 9,4 C 84 % 1015,0 hPa 0,0 l/m 0 min 0 min 113 W/m 20,9 km/h (4 Bft)
15.05.2015 08:42 8,9 C 9,4 C 84 % 1015,0 hPa 0,0 l/m 0 min 0 min 118 W/m 25,1 km/h (4 Bft)
15.05.2015 08:44 8,9 C 8,9 C 83 % 1015,1 hPa 0,0 l/m 0 min 0 min 124 W/m 27,2 km/h (4 Bft)
15.05.2015 08:46 8,9 C 8,9 C 83 % 1015,1 hPa 0,0 l/m 0 min 0 min 128 W/m 25,1 km/h (4 Bft)
15.05.2015 08:48 8,9 C 9,4 C 83 % 1015,1 hPa 0,0 l/m 0 min 0 min 131 W/m 16,7 km/h (3 Bft)
15.05.2015 08:50 8,9 C 9,4 C 84 % 1015,1 hPa 0,0 l/m 0 min 0 min 133 W/m 18,8 km/h (3 Bft)
15.05.2015 08:52 8,9 C 9,4 C 84 % 1015,1 hPa 0,0 l/m 0 min 0 min 137 W/m 20,9 km/h (4 Bft)
15.05.2015 08:54 8,9 C 9,4 C 84 % 1015,1 hPa 0,0 l/m 0 min 0 min 141 W/m 18,8 km/h (3 Bft)
15.05.2015 08:56 9,0 C 9,4 C 83 % 1015,2 hPa 0,0 l/m 0 min 0 min 143 W/m 18,8 km/h (3 Bft)
15.05.2015 08:58 9,0 C 9,4 C 83 % 1015,2 hPa 0,0 l/m 0 min 0 min 147 W/m 29,3 km/h (5 Bft)
15.05.2015 09:00 9,0 C 9,4 C 83 % 1015,2 hPa 0,0 l/m 0 min 0 min 150 W/m 16,7 km/h (3 Bft)
15.05.2015 09:02 9,1 C 9,4 C 83 % 1015,3 hPa 0,0 l/m 0 min 0 min 155 W/m 20,9 km/h (4 Bft)
15.05.2015 09:04 9,1 C 9,4 C 83 % 1015,2 hPa 0,0 l/m 0 min 0 min 164 W/m 18,8 km/h (3 Bft)
15.05.2015 09:06 9,1 C 9,4 C 83 % 1015,3 hPa 0,0 l/m 0 min 0 min 176 W/m 20,9 km/h (4 Bft)
15.05.2015 09:08 9,2 C 9,4 C 83 % 1015,3 hPa 0,0 l/m 0 min 0 min 189 W/m 23,0 km/h (4 Bft)
15.05.2015 09:10 9,2 C 9,4 C 83 % 1015,3 hPa 0,0 l/m 0 min 0 min 202 W/m 23,0 km/h (4 Bft)
15.05.2015 09:12 9,2 C 10,0 C 83 % 1015,3 hPa 0,0 l/m 0 min 0 min 211 W/m 25,1 km/h (4 Bft)
15.05.2015 09:14 9,3 C 10,0 C 83 % 1015,3 hPa 0,0 l/m 0 min 0 min 218 W/m 23,0 km/h (4 Bft)
15.05.2015 09:16 9,3 C 10,0 C 82 % 1015,4 hPa 0,0 l/m 0 min 0 min 226 W/m 25,1 km/h (4 Bft)
15.05.2015 09:18 9,4 C 10,0 C 82 % 1015,4 hPa 0,0 l/m 0 min 0 min 239 W/m 16,7 km/h (3 Bft)
15.05.2015 09:20 9,4 C 10,0 C 82 % 1015,4 hPa 0,0 l/m 0 min 0 min 254 W/m 18,8 km/h (3 Bft)
15.05.2015 09:22 9,5 C 10,0 C 82 % 1015,4 hPa 0,0 l/m 2 min 0 min 266 W/m 23,0 km/h (4 Bft)
15.05.2015 09:24 9,6 C 10,0 C 82 % 1015,5 hPa 0,0 l/m 2 min 0 min 272 W/m 23,0 km/h (4 Bft)
15.05.2015 09:26 9,6 C 10,0 C 81 % 1015,5 hPa 0,0 l/m 2 min 0 min 272 W/m 20,9 km/h (4 Bft)
15.05.2015 09:28 9,7 C 10,6 C 81 % 1015,6 hPa 0,0 l/m 2 min 0 min 274 W/m 23,0 km/h (4 Bft)
15.05.2015 09:30 9,8 C 10,6 C 81 % 1015,5 hPa 0,0 l/m 2 min 0 min 280 W/m 16,7 km/h (3 Bft)
15.05.2015 09:32 9,8 C 10,6 C 81 % 1015,6 hPa 0,0 l/m 2 min 0 min 292 W/m 25,1 km/h (4 Bft)
15.05.2015 09:34 9,9 C 10,6 C 81 % 1015,6 hPa 0,0 l/m 2 min 0 min 309 W/m 23,0 km/h (4 Bft)
15.05.2015 09:36 10,0 C 10,6 C 80 % 1015,6 hPa 0,0 l/m 2 min 0 min 327 W/m 16,7 km/h (3 Bft)
15.05.2015 09:38 10,1 C 11,1 C 81 % 1015,6 hPa 0,0 l/m 2 min 0 min 333 W/m 12,6 km/h (3 Bft)
15.05.2015 09:40 10,2 C 11,1 C 81 % 1015,6 hPa 0,0 l/m 2 min 0 min 324 W/m 23,0 km/h (4 Bft)
15.05.2015 09:42 10,3 C 11,1 C 81 % 1015,6 hPa 0,0 l/m 2 min 0 min 317 W/m 14,6 km/h (3 Bft)
15.05.2015 09:44 10,4 C 11,1 C 80 % 1015,6 hPa 0,0 l/m 2 min 0 min 338 W/m 14,6 km/h (3 Bft)
15.05.2015 09:46 10,5 C 11,7 C 80 % 1015,6 hPa 0,0 l/m 2 min 0 min 406 W/m 20,9 km/h (4 Bft)
15.05.2015 09:48 10,6 C 11,7 C 79 % 1015,7 hPa 0,0 l/m 2 min 0 min 355 W/m 25,1 km/h (4 Bft)
15.05.2015 09:50 10,7 C 11,7 C 79 % 1015,6 hPa 0,0 l/m 2 min 0 min 354 W/m 25,1 km/h (4 Bft)
15.05.2015 09:52 10,8 C 11,1 C 78 % 1015,6 hPa 0,0 l/m 2 min 0 min 367 W/m 23,0 km/h (4 Bft)
15.05.2015 09:54 10,8 C 11,7 C 78 % 1015,6 hPa 0,0 l/m 2 min 0 min 488 W/m 23,0 km/h (4 Bft)
15.05.2015 09:56 10,9 C 11,7 C 78 % 1015,7 hPa 0,0 l/m 2 min 0 min 584 W/m 18,8 km/h (3 Bft)
15.05.2015 09:58 11,0 C 11,7 C 78 % 1015,7 hPa 0,0 l/m 2 min 0 min 427 W/m 23,0 km/h (4 Bft)
15.05.2015 10:00 11,1 C 11,7 C 77 % 1015,7 hPa 0,0 l/m 2 min 0 min 591 W/m 16,7 km/h (3 Bft)
15.05.2015 10:02 11,2 C 11,7 C 77 % 1015,7 hPa 0,0 l/m 2 min 0 min 465 W/m 18,8 km/h (3 Bft)
15.05.2015 10:04 11,3 C 11,7 C 77 % 1015,7 hPa 0,0 l/m 2 min 0 min 463 W/m 18,8 km/h (3 Bft)
15.05.2015 10:06 11,4 C 11,7 C 76 % 1015,7 hPa 0,0 l/m 2 min 0 min 575 W/m 25,1 km/h (4 Bft)
15.05.2015 10:08 11,5 C 11,7 C 76 % 1015,7 hPa 0,0 l/m 2 min 0 min 579 W/m 27,2 km/h (4 Bft)
15.05.2015 10:10 11,6 C 11,7 C 76 % 1015,7 hPa 0,0 l/m 2 min 0 min 578 W/m 18,8 km/h (3 Bft)
15.05.2015 10:12 11,7 C 12,2 C 76 % 1015,7 hPa 0,0 l/m 2 min 0 min 580 W/m 25,1 km/h (4 Bft)
15.05.2015 10:14 11,8 C 12,2 C 75 % 1015,8 hPa 0,0 l/m 2 min 0 min 583 W/m 23,0 km/h (4 Bft)
15.05.2015 10:16 11,9 C 12,2 C 74 % 1015,8 hPa 0,0 l/m 2 min 0 min 589 W/m 25,1 km/h (4 Bft)
15.05.2015 10:18 12,0 C 11,7 C 74 % 1015,9 hPa 0,0 l/m 2 min 0 min 593 W/m 27,2 km/h (4 Bft)
15.05.2015 10:20 12,1 C 11,7 C 74 % 1015,9 hPa 0,0 l/m 2 min 0 min 596 W/m 25,1 km/h (4 Bft)
15.05.2015 10:22 12,2 C 11,7 C 74 % 1015,9 hPa 0,0 l/m 2 min 0 min 597 W/m 18,8 km/h (3 Bft)
15.05.2015 10:24 12,3 C 12,2 C 74 % 1015,8 hPa 0,0 l/m 2 min 0 min 603 W/m 29,3 km/h (5 Bft)
15.05.2015 10:26 12,3 C 11,7 C 72 % 1015,9 hPa 0,0 l/m 2 min 0 min 610 W/m 31,4 km/h (5 Bft)
15.05.2015 10:28 12,4 C 11,7 C 73 % 1015,8 hPa 0,0 l/m 2 min 0 min 614 W/m 23,0 km/h (4 Bft)
15.05.2015 10:30 12,5 C 12,2 C 73 % 1015,9 hPa 0,0 l/m 2 min 0 min 616 W/m 23,0 km/h (4 Bft)
15.05.2015 10:32 12,6 C 12,2 C 72 % 1016,1 hPa 0,0 l/m 2 min 0 min 623 W/m 27,2 km/h (4 Bft)
15.05.2015 10:34 12,7 C 12,2 C 72 % 1016,0 hPa 0,0 l/m 2 min 0 min 628 W/m 27,2 km/h (4 Bft)
15.05.2015 10:36 12,9 C 12,8 C 72 % 1015,9 hPa 0,0 l/m 2 min 0 min 631 W/m 27,2 km/h (4 Bft)
15.05.2015 10:38 13,1 C 12,8 C 71 % 1016,0 hPa 0,0 l/m 2 min 0 min 638 W/m 23,0 km/h (4 Bft)
15.05.2015 10:40 13,2 C 12,8 C 71 % 1016,1 hPa 0,0 l/m 2 min 0 min 640 W/m 23,0 km/h (4 Bft)
15.05.2015 10:42 13,3 C 12,8 C 71 % 1016,1 hPa 0,0 l/m 2 min 0 min 642 W/m 27,2 km/h (4 Bft)
15.05.2015 10:44 13,4 C 12,8 C 71 % 1016,1 hPa 0,0 l/m 2 min 0 min 649 W/m 18,8 km/h (3 Bft)
15.05.2015 10:46 13,6 C 12,8 C 70 % 1016,1 hPa 0,0 l/m 2 min 0 min 651 W/m 23,0 km/h (4 Bft)
15.05.2015 10:48 13,6 C 12,8 C 69 % 1016,1 hPa 0,0 l/m 2 min 0 min 651 W/m 27,2 km/h (4 Bft)
15.05.2015 10:50 13,7 C 12,8 C 68 % 1016,1 hPa 0,0 l/m 2 min 0 min 654 W/m 29,3 km/h (5 Bft)
15.05.2015 10:52 13,7 C 12,8 C 68 % 1016,1 hPa 0,0 l/m 2 min 0 min 651 W/m 27,2 km/h (4 Bft)
15.05.2015 10:54 13,7 C 12,8 C 68 % 1016,1 hPa 0,0 l/m 2 min 0 min 655 W/m 20,9 km/h (4 Bft)
15.05.2015 10:56 13,7 C 12,8 C 69 % 1016,1 hPa 0,0 l/m 2 min 0 min 665 W/m 23,0 km/h (4 Bft)
15.05.2015 10:58 13,8 C 12,8 C 69 % 1016,1 hPa 0,0 l/m 2 min 0 min 672 W/m 18,8 km/h (3 Bft)
15.05.2015 11:00 13,9 C 13,3 C 69 % 1016,1 hPa 0,0 l/m 2 min 0 min 672 W/m 27,2 km/h (4 Bft)
15.05.2015 11:02 14,1 C 13,3 C 68 % 1016,2 hPa 0,0 l/m 2 min 0 min 675 W/m 29,3 km/h (5 Bft)
15.05.2015 11:04 14,2 C 13,3 C 67 % 1016,2 hPa 0,0 l/m 2 min 0 min 680 W/m 20,9 km/h (4 Bft)
15.05.2015 11:06 14,2 C 13,3 C 67 % 1016,1 hPa 0,0 l/m 2 min 0 min 684 W/m 25,1 km/h (4 Bft)
15.05.2015 11:08 14,2 C 13,3 C 66 % 1016,1 hPa 0,0 l/m 2 min 0 min 687 W/m 27,2 km/h (4 Bft)
15.05.2015 11:10 14,2 C 13,3 C 67 % 1016,1 hPa 0,0 l/m 2 min 0 min 692 W/m 18,8 km/h (3 Bft)
15.05.2015 11:12 14,2 C 13,3 C 67 % 1016,2 hPa 0,0 l/m 2 min 0 min 696 W/m 14,6 km/h (3 Bft)
15.05.2015 11:14 14,2 C 13,3 C 68 % 1016,2 hPa 0,0 l/m 2 min 0 min 702 W/m 16,7 km/h (3 Bft)
15.05.2015 11:16 14,4 C 13,9 C 68 % 1016,4 hPa 0,0 l/m 2 min 0 min 707 W/m 29,3 km/h (5 Bft)
15.05.2015 11:18 14,6 C 13,9 C 67 % 1016,3 hPa 0,0 l/m 2 min 0 min 706 W/m 23,0 km/h (4 Bft)
15.05.2015 11:20 14,7 C 13,9 C 66 % 1016,4 hPa 0,0 l/m 2 min 0 min 709 W/m 23,0 km/h (4 Bft)
15.05.2015 11:22 14,7 C 13,9 C 65 % 1016,5 hPa 0,0 l/m 2 min 0 min 712 W/m 29,3 km/h (5 Bft)
15.05.2015 11:24 14,8 C 13,3 C 64 % 1016,6 hPa 0,0 l/m 2 min 0 min 709 W/m 25,1 km/h (4 Bft)
15.05.2015 11:26 14,8 C 13,9 C 65 % 1016,5 hPa 0,0 l/m 2 min 0 min 717 W/m 25,1 km/h (4 Bft)
15.05.2015 11:28 14,9 C 13,9 C 64 % 1016,5 hPa 0,0 l/m 2 min 0 min 724 W/m 25,1 km/h (4 Bft)
15.05.2015 11:30 14,9 C 13,9 C 64 % 1016,6 hPa 0,0 l/m 2 min 0 min 723 W/m 23,0 km/h (4 Bft)
15.05.2015 11:32 14,9 C 13,9 C 64 % 1016,6 hPa 0,0 l/m 2 min 0 min 723 W/m 23,0 km/h (4 Bft)
15.05.2015 11:34 14,9 C 13,9 C 64 % 1016,6 hPa 0,0 l/m 2 min 0 min 738 W/m 18,8 km/h (3 Bft)
15.05.2015 11:36 15,0 C 13,9 C 65 % 1016,6 hPa 0,0 l/m 2 min 0 min 739 W/m 23,0 km/h (4 Bft)
15.05.2015 11:38 15,1 C 13,9 C 64 % 1016,6 hPa 0,0 l/m 2 min 0 min 725 W/m 23,0 km/h (4 Bft)
15.05.2015 11:40 15,1 C 13,9 C 64 % 1016,6 hPa 0,0 l/m 2 min 0 min 746 W/m 29,3 km/h (5 Bft)
15.05.2015 11:42 15,1 C 13,9 C 63 % 1016,6 hPa 0,0 l/m 2 min 0 min 750 W/m 25,1 km/h (4 Bft)
15.05.2015 11:44 15,0 C 13,9 C 64 % 1016,6 hPa 0,0 l/m 2 min 0 min 753 W/m 25,1 km/h (4 Bft)
15.05.2015 11:46 15,0 C 13,9 C 64 % 1016,7 hPa 0,0 l/m 2 min 0 min 748 W/m 23,0 km/h (4 Bft)
15.05.2015 11:48 15,1 C 13,9 C 65 % 1016,6 hPa 0,0 l/m 2 min 0 min 747 W/m 20,9 km/h (4 Bft)
15.05.2015 11:50 15,1 C 13,9 C 65 % 1016,6 hPa 0,0 l/m 2 min 0 min 752 W/m 23,0 km/h (4 Bft)
15.05.2015 11:52 15,2 C 13,9 C 65 % 1016,7 hPa 0,0 l/m 2 min 0 min 762 W/m 27,2 km/h (4 Bft)
15.05.2015 11:54 15,3 C 14,4 C 64 % 1016,7 hPa 0,0 l/m 2 min 0 min 764 W/m 29,3 km/h (5 Bft)
15.05.2015 11:56 15,3 C 13,9 C 63 % 1016,8 hPa 0,0 l/m 2 min 0 min 764 W/m 29,3 km/h (5 Bft)
15.05.2015 11:58 15,3 C 13,9 C 63 % 1016,7 hPa 0,0 l/m 2 min 0 min 765 W/m 20,9 km/h (4 Bft)
15.05.2015 12:00 15,3 C 13,9 C 63 % 1016,7 hPa 0,0 l/m 2 min 0 min 771 W/m 23,0 km/h (4 Bft)
15.05.2015 12:02 15,3 C 13,9 C 63 % 1016,7 hPa 0,0 l/m 2 min 0 min 775 W/m 18,8 km/h (3 Bft)
15.05.2015 12:06 15,4 C 14,4 C 64 % 1016,7 hPa 0,0 l/m 2 min 0 min 777 W/m 23,0 km/h (4 Bft)
15.05.2015 12:08 15,5 C 14,4 C 63 % 1016,7 hPa 0,0 l/m 2 min 0 min 758 W/m 27,2 km/h (4 Bft)
15.05.2015 12:10 15,5 C 14,4 C 63 % 1016,9 hPa 0,0 l/m 2 min 0 min 737 W/m 23,0 km/h (4 Bft)
15.05.2015 12:12 15,6 C 14,4 C 62 % 1016,9 hPa 0,0 l/m 0 min 0 min 369 W/m 23,0 km/h (4 Bft)
15.05.2015 12:14 15,7 C 14,4 C 61 % 1016,8 hPa 0,0 l/m 2 min 0 min 518 W/m 20,9 km/h (4 Bft)
15.05.2015 12:16 15,7 C 15,0 C 62 % 1016,9 hPa 0,0 l/m 2 min 0 min 785 W/m 23,0 km/h (4 Bft)
15.05.2015 12:18 15,8 C 15,0 C 62 % 1016,8 hPa 0,0 l/m 2 min 0 min 790 W/m 20,9 km/h (4 Bft)
15.05.2015 12:20 15,9 C 15,0 C 63 % 1016,8 hPa 0,0 l/m 2 min 0 min 787 W/m 23,0 km/h (4 Bft)
15.05.2015 12:22 16,0 C 15,0 C 61 % 1016,9 hPa 0,0 l/m 2 min 0 min 794 W/m 25,1 km/h (4 Bft)
15.05.2015 12:24 16,1 C 15,0 C 61 % 1016,8 hPa 0,0 l/m 2 min 0 min 797 W/m 18,8 km/h (3 Bft)
15.05.2015 12:26 16,2 C 15,0 C 61 % 1016,9 hPa 0,0 l/m 2 min 0 min 802 W/m 25,1 km/h (4 Bft)
15.05.2015 12:28 16,2 C 15,0 C 60 % 1016,9 hPa 0,0 l/m 2 min 0 min 798 W/m 20,9 km/h (4 Bft)
15.05.2015 12:30 16,2 C 15,0 C 60 % 1016,9 hPa 0,0 l/m 2 min 0 min 806 W/m 20,9 km/h (4 Bft)
15.05.2015 12:32 16,2 C 15,0 C 60 % 1017,0 hPa 0,0 l/m 2 min 0 min 788 W/m 18,8 km/h (3 Bft)
15.05.2015 12:34 16,3 C 16,1 C 60 % 1016,9 hPa 0,0 l/m 2 min 0 min 812 W/m 25,1 km/h (4 Bft)
15.05.2015 12:36 16,3 C 16,7 C 60 % 1016,9 hPa 0,0 l/m 2 min 0 min 812 W/m 27,2 km/h (4 Bft)
15.05.2015 12:38 16,3 C 17,8 C 60 % 1017,0 hPa 0,0 l/m 2 min 0 min 785 W/m 23,0 km/h (4 Bft)
15.05.2015 12:40 16,4 C 17,8 C 59 % 1017,0 hPa 0,0 l/m 2 min 0 min 710 W/m 20,9 km/h (4 Bft)
15.05.2015 12:42 16,3 C 17,2 C 59 % 1017,0 hPa 0,0 l/m 2 min 0 min 608 W/m 23,0 km/h (4 Bft)
15.05.2015 12:44 16,3 C 16,7 C 59 % 1016,9 hPa 0,0 l/m 2 min 0 min 808 W/m 27,2 km/h (4 Bft)
15.05.2015 12:46 16,3 C 16,1 C 60 % 1017,0 hPa 0,0 l/m 2 min 0 min 811 W/m 25,1 km/h (4 Bft)
15.05.2015 12:48 16,3 C 15,6 C 59 % 1017,0 hPa 0,0 l/m 2 min 0 min 817 W/m 20,9 km/h (4 Bft)
15.05.2015 12:50 16,2 C 15,6 C 59 % 1017,0 hPa 0,0 l/m 2 min 0 min 823 W/m 20,9 km/h (4 Bft)
15.05.2015 12:52 16,2 C 16,1 C 59 % 1017,0 hPa 0,0 l/m 2 min 0 min 802 W/m 14,6 km/h (3 Bft)
15.05.2015 12:54 16,3 C 16,7 C 61 % 1017,0 hPa 0,0 l/m 2 min 0 min 822 W/m 20,9 km/h (4 Bft)
15.05.2015 12:56 16,4 C 16,7 C 60 % 1017,0 hPa 0,0 l/m 2 min 0 min 829 W/m 25,1 km/h (4 Bft)
15.05.2015 12:58 16,4 C 16,7 C 59 % 1017,1 hPa 0,0 l/m 2 min 0 min 826 W/m 37,7 km/h (5 Bft)
15.05.2015 13:00 16,3 C 17,2 C 60 % 1017,2 hPa 0,0 l/m 2 min 0 min 821 W/m 23,0 km/h (4 Bft)
15.05.2015 13:02 16,4 C 17,8 C 61 % 1017,3 hPa 0,0 l/m 2 min 0 min 838 W/m 16,7 km/h (3 Bft)
15.05.2015 13:04 16,4 C 17,8 C 60 % 1017,3 hPa 0,0 l/m 2 min 0 min 837 W/m 18,8 km/h (3 Bft)
15.05.2015 13:06 16,5 C 18,3 C 63 % 1017,2 hPa 0,0 l/m 2 min 0 min 842 W/m 18,8 km/h (3 Bft)
15.05.2015 13:08 16,6 C 19,4 C 61 % 1017,1 hPa 0,0 l/m 2 min 0 min 854 W/m 18,8 km/h (3 Bft)
15.05.2015 13:10 16,8 C 20,0 C 60 % 1017,3 hPa 0,0 l/m 2 min 0 min 804 W/m 25,1 km/h (4 Bft)
15.05.2015 13:12 16,9 C 20,0 C 60 % 1017,2 hPa 0,0 l/m 2 min 0 min 781 W/m 14,6 km/h (3 Bft)
15.05.2015 13:14 16,9 C 20,0 C 59 % 1017,3 hPa 0,0 l/m 2 min 0 min 840 W/m 14,6 km/h (3 Bft)
15.05.2015 13:16 17,0 C 19,4 C 59 % 1017,4 hPa 0,0 l/m 2 min 0 min 830 W/m 18,8 km/h (3 Bft)
15.05.2015 13:18 17,0 C 18,9 C 59 % 1017,4 hPa 0,0 l/m 2 min 0 min 841 W/m 27,2 km/h (4 Bft)
15.05.2015 13:20 17,1 C 18,3 C 58 % 1017,4 hPa 0,0 l/m 2 min 0 min 844 W/m 18,8 km/h (3 Bft)
15.05.2015 13:22 17,1 C 17,2 C 58 % 1017,5 hPa 0,0 l/m 2 min 0 min 844 W/m 18,8 km/h (3 Bft)
15.05.2015 13:24 17,1 C 17,2 C 58 % 1017,5 hPa 0,0 l/m 2 min 0 min 831 W/m 25,1 km/h (4 Bft)
15.05.2015 13:26 17,0 C 17,2 C 58 % 1017,5 hPa 0,0 l/m 2 min 0 min 836 W/m 18,8 km/h (3 Bft)
15.05.2015 13:28 17,0 C 18,3 C 58 % 1017,5 hPa 0,0 l/m 2 min 0 min 836 W/m 20,9 km/h (4 Bft)
15.05.2015 13:30 17,0 C 18,3 C 58 % 1017,4 hPa 0,0 l/m 2 min 0 min 837 W/m 18,8 km/h (3 Bft)
15.05.2015 13:32 17,1 C 18,9 C 58 % 1017,5 hPa 0,0 l/m 2 min 0 min 844 W/m 20,9 km/h (4 Bft)
15.05.2015 13:34 17,1 C 17,8 C 59 % 1017,4 hPa 0,0 l/m 2 min 0 min 837 W/m 25,1 km/h (4 Bft)
15.05.2015 13:36 17,1 C 17,2 C 59 % 1017,5 hPa 0,0 l/m 2 min 0 min 823 W/m 27,2 km/h (4 Bft)
15.05.2015 13:38 17,1 C 16,7 C 58 % 1017,5 hPa 0,0 l/m 2 min 0 min 838 W/m 18,8 km/h (3 Bft)
15.05.2015 13:40 17,1 C 16,7 C 59 % 1017,5 hPa 0,0 l/m 2 min 0 min 838 W/m 18,8 km/h (3 Bft)
15.05.2015 13:42 17,2 C 16,7 C 59 % 1017,5 hPa 0,0 l/m 2 min 0 min 835 W/m 16,7 km/h (3 Bft)
15.05.2015 13:44 17,2 C 16,1 C 58 % 1017,7 hPa 0,0 l/m 2 min 0 min 819 W/m 25,1 km/h (4 Bft)
15.05.2015 13:46 17,2 C 16,1 C 58 % 1017,6 hPa 0,0 l/m 2 min 0 min 844 W/m 18,8 km/h (3 Bft)
15.05.2015 13:48 17,2 C 15,6 C 57 % 1017,7 hPa 0,0 l/m 2 min 0 min 844 W/m 20,9 km/h (4 Bft)
15.05.2015 13:50 17,2 C 15,6 C 58 % 1017,6 hPa 0,0 l/m 2 min 0 min 847 W/m 14,6 km/h (3 Bft)
15.05.2015 13:52 17,2 C 16,1 C 58 % 1017,7 hPa 0,0 l/m 2 min 0 min 854 W/m 16,7 km/h (3 Bft)
15.05.2015 13:54 17,3 C 16,1 C 60 % 1017,7 hPa 0,0 l/m 2 min 0 min 846 W/m 16,7 km/h (3 Bft)
15.05.2015 13:56 17,4 C 16,1 C 58 % 1017,8 hPa 0,0 l/m 2 min 0 min 829 W/m 20,9 km/h (4 Bft)
15.05.2015 13:58 17,4 C 16,1 C 57 % 1017,7 hPa 0,0 l/m 2 min 0 min 826 W/m 23,0 km/h (4 Bft)
15.05.2015 14:00 17,4 C 16,1 C 56 % 1017,6 hPa 0,0 l/m 2 min 0 min 834 W/m 18,8 km/h (3 Bft)
15.05.2015 14:02 17,5 C 16,1 C 57 % 1017,6 hPa 0,0 l/m 2 min 0 min 830 W/m 14,6 km/h (3 Bft)
15.05.2015 14:04 17,6 C 16,1 C 56 % 1017,6 hPa 0,0 l/m 2 min 0 min 829 W/m 14,6 km/h (3 Bft)
15.05.2015 14:06 17,6 C 16,1 C 56 % 1017,7 hPa 0,0 l/m 2 min 0 min 830 W/m 20,9 km/h (4 Bft)
15.05.2015 14:08 17,6 C 16,1 C 55 % 1017,7 hPa 0,0 l/m 2 min 0 min 823 W/m 18,8 km/h (3 Bft)
15.05.2015 14:10 17,6 C 15,6 C 55 % 1017,7 hPa 0,0 l/m 2 min 0 min 828 W/m 25,1 km/h (4 Bft)
15.05.2015 14:12 17,6 C 15,6 C 55 % 1017,7 hPa 0,0 l/m 2 min 0 min 828 W/m 27,2 km/h (4 Bft)
15.05.2015 14:14 17,5 C 15,6 C 55 % 1017,6 hPa 0,0 l/m 2 min 0 min 823 W/m 18,8 km/h (3 Bft)
15.05.2015 14:16 17,5 C 15,6 C 55 % 1017,6 hPa 0,0 l/m 2 min 0 min 826 W/m 20,9 km/h (4 Bft)
15.05.2015 14:18 17,4 C 15,6 C 55 % 1017,6 hPa 0,0 l/m 2 min 0 min 830 W/m 25,1 km/h (4 Bft)
15.05.2015 14:20 17,4 C 15,6 C 55 % 1017,7 hPa 0,0 l/m 2 min 0 min 827 W/m 29,3 km/h (5 Bft)
15.05.2015 14:22 17,4 C 15,6 C 55 % 1017,7 hPa 0,0 l/m 2 min 0 min 820 W/m 25,1 km/h (4 Bft)
15.05.2015 14:24 17,3 C 15,0 C 54 % 1017,7 hPa 0,0 l/m 2 min 0 min 821 W/m 20,9 km/h (4 Bft)
15.05.2015 14:26 17,2 C 15,0 C 55 % 1017,8 hPa 0,0 l/m 2 min 0 min 820 W/m 18,8 km/h (3 Bft)
15.05.2015 14:28 17,2 C 15,6 C 56 % 1017,7 hPa 0,0 l/m 2 min 0 min 821 W/m 8,4 km/h (2 Bft)
15.05.2015 14:30 17,3 C 15,6 C 56 % 1017,7 hPa 0,0 l/m 2 min 0 min 821 W/m 10,5 km/h (2 Bft)
15.05.2015 14:32 17,4 C 15,6 C 58 % 1017,7 hPa 0,0 l/m 2 min 0 min 822 W/m 12,6 km/h (3 Bft)
15.05.2015 14:34 17,4 C 15,6 C 55 % 1017,7 hPa 0,0 l/m 2 min 0 min 822 W/m 18,8 km/h (3 Bft)
15.05.2015 14:36 17,4 C 15,6 C 55 % 1017,8 hPa 0,0 l/m 2 min 0 min 818 W/m 23,0 km/h (4 Bft)
15.05.2015 14:38 17,5 C 15,6 C 55 % 1017,7 hPa 0,0 l/m 2 min 0 min 816 W/m 12,6 km/h (3 Bft)
15.05.2015 14:40 17,5 C 15,6 C 54 % 1017,8 hPa 0,0 l/m 2 min 0 min 811 W/m 18,8 km/h (3 Bft)
15.05.2015 14:42 17,6 C 15,6 C 55 % 1017,8 hPa 0,0 l/m 2 min 0 min 812 W/m 18,8 km/h (3 Bft)
15.05.2015 14:44 17,6 C 15,6 C 55 % 1017,8 hPa 0,0 l/m 2 min 0 min 814 W/m 14,6 km/h (3 Bft)
15.05.2015 14:46 17,7 C 15,6 C 55 % 1017,7 hPa 0,0 l/m 2 min 0 min 806 W/m 23,0 km/h (4 Bft)
15.05.2015 14:48 17,7 C 15,6 C 54 % 1017,7 hPa 0,0 l/m 2 min 0 min 804 W/m 25,1 km/h (4 Bft)
15.05.2015 14:50 17,7 C 15,6 C 55 % 1017,8 hPa 0,0 l/m 2 min 0 min 807 W/m 20,9 km/h (4 Bft)
15.05.2015 14:52 17,7 C 15,6 C 53 % 1017,8 hPa 0,0 l/m 2 min 0 min 806 W/m 16,7 km/h (3 Bft)
15.05.2015 14:54 17,7 C 15,6 C 53 % 1017,8 hPa 0,0 l/m 2 min 0 min 808 W/m 14,6 km/h (3 Bft)
15.05.2015 14:56 17,7 C 15,6 C 54 % 1017,8 hPa 0,0 l/m 2 min 0 min 807 W/m 20,9 km/h (4 Bft)
15.05.2015 14:58 17,7 C 15,6 C 53 % 1017,8 hPa 0,0 l/m 2 min 0 min 798 W/m 16,7 km/h (3 Bft)
15.05.2015 15:00 17,7 C 15,6 C 53 % 1017,8 hPa 0,0 l/m 2 min 0 min 796 W/m 23,0 km/h (4 Bft)
15.05.2015 15:02 17,7 C 15,6 C 53 % 1017,8 hPa 0,0 l/m 2 min 0 min 793 W/m 18,8 km/h (3 Bft)
15.05.2015 15:04 17,7 C 15,6 C 56 % 1017,9 hPa 0,0 l/m 2 min 0 min 793 W/m 18,8 km/h (3 Bft)
15.05.2015 15:06 17,7 C 15,6 C 53 % 1017,8 hPa 0,0 l/m 2 min 0 min 795 W/m 20,9 km/h (4 Bft)
15.05.2015 15:08 17,8 C 16,1 C 55 % 1017,8 hPa 0,0 l/m 2 min 0 min 793 W/m 23,0 km/h (4 Bft)
15.05.2015 15:10 17,9 C 16,1 C 56 % 1017,8 hPa 0,0 l/m 2 min 0 min 790 W/m 18,8 km/h (3 Bft)
15.05.2015 15:12 18,0 C 16,1 C 53 % 1017,8 hPa 0,0 l/m 2 min 0 min 788 W/m 29,3 km/h (5 Bft)
15.05.2015 15:14 18,1 C 16,1 C 53 % 1017,7 hPa 0,0 l/m 2 min 0 min 784 W/m 23,0 km/h (4 Bft)
15.05.2015 15:16 18,1 C 16,1 C 52 % 1017,8 hPa 0,0 l/m 2 min 0 min 783 W/m 18,8 km/h (3 Bft)
15.05.2015 15:18 18,1 C 16,1 C 52 % 1017,8 hPa 0,0 l/m 2 min 0 min 781 W/m 16,7 km/h (3 Bft)
15.05.2015 15:20 18,1 C 16,1 C 52 % 1017,7 hPa 0,0 l/m 2 min 0 min 782 W/m 23,0 km/h (4 Bft)
15.05.2015 15:22 18,2 C 16,1 C 51 % 1017,7 hPa 0,0 l/m 2 min 0 min 776 W/m 20,9 km/h (4 Bft)
15.05.2015 15:24 18,1 C 16,1 C 52 % 1017,7 hPa 0,0 l/m 2 min 0 min 768 W/m 25,1 km/h (4 Bft)
15.05.2015 15:26 18,0 C 15,6 C 51 % 1017,8 hPa 0,0 l/m 2 min 0 min 766 W/m 16,7 km/h (3 Bft)
15.05.2015 15:28 18,0 C 15,6 C 52 % 1017,7 hPa 0,0 l/m 2 min 0 min 766 W/m 14,6 km/h (3 Bft)
15.05.2015 15:30 18,0 C 15,6 C 53 % 1017,7 hPa 0,0 l/m 2 min 0 min 768 W/m 16,7 km/h (3 Bft)
15.05.2015 15:32 18,0 C 16,1 C 53 % 1017,8 hPa 0,0 l/m 2 min 0 min 760 W/m 16,7 km/h (3 Bft)
15.05.2015 15:34 18,1 C 16,1 C 53 % 1017,8 hPa 0,0 l/m 2 min 0 min 759 W/m 14,6 km/h (3 Bft)
15.05.2015 15:36 18,1 C 16,1 C 53 % 1017,8 hPa 0,0 l/m 2 min 0 min 750 W/m 23,0 km/h (4 Bft)
15.05.2015 15:38 18,0 C 16,1 C 52 % 1017,8 hPa 0,0 l/m 2 min 0 min 751 W/m 20,9 km/h (4 Bft)
15.05.2015 15:40 18,0 C 15,6 C 51 % 1017,8 hPa 0,0 l/m 2 min 0 min 746 W/m 18,8 km/h (3 Bft)
15.05.2015 15:42 17,9 C 16,1 C 53 % 1017,8 hPa 0,0 l/m 2 min 0 min 746 W/m 23,0 km/h (4 Bft)
15.05.2015 15:44 18,0 C 16,1 C 54 % 1017,8 hPa 0,0 l/m 2 min 0 min 738 W/m 23,0 km/h (4 Bft)
15.05.2015 15:46 18,0 C 16,1 C 53 % 1017,9 hPa 0,0 l/m 2 min 0 min 737 W/m 20,9 km/h (4 Bft)
15.05.2015 15:48 18,1 C 16,1 C 53 % 1017,8 hPa 0,0 l/m 2 min 0 min 736 W/m 23,0 km/h (4 Bft)
15.05.2015 15:50 18,1 C 16,1 C 52 % 1017,9 hPa 0,0 l/m 2 min 0 min 731 W/m 16,7 km/h (3 Bft)
15.05.2015 15:52 18,0 C 16,1 C 52 % 1017,9 hPa 0,0 l/m 2 min 0 min 734 W/m 25,1 km/h (4 Bft)
15.05.2015 15:54 17,9 C 15,6 C 52 % 1017,9 hPa 0,0 l/m 2 min 0 min 729 W/m 16,7 km/h (3 Bft)
15.05.2015 15:56 17,9 C 15,6 C 53 % 1017,9 hPa 0,0 l/m 2 min 0 min 726 W/m 20,9 km/h (4 Bft)
15.05.2015 15:58 17,9 C 16,1 C 54 % 1017,9 hPa 0,0 l/m 2 min 0 min 718 W/m 23,0 km/h (4 Bft)
15.05.2015 16:00 17,9 C 16,1 C 54 % 1017,8 hPa 0,0 l/m 2 min 0 min 713 W/m 20,9 km/h (4 Bft)
15.05.2015 16:02 17,9 C 16,1 C 54 % 1017,9 hPa 0,0 l/m 2 min 0 min 714 W/m 18,8 km/h (3 Bft)
15.05.2015 16:04 17,9 C 16,1 C 53 % 1017,8 hPa 0,0 l/m 2 min 0 min 711 W/m 23,0 km/h (4 Bft)
15.05.2015 16:06 17,4 C 15,6 C 54 % 1017,9 hPa 0,0 l/m 2 min 0 min 706 W/m 18,8 km/h (3 Bft)
15.05.2015 16:08 16,9 C 15,6 C 54 % 1017,9 hPa 0,0 l/m 2 min 0 min 708 W/m 16,7 km/h (3 Bft)
15.05.2015 16:10 16,9 C 15,6 C 56 % 1017,9 hPa 0,0 l/m 2 min 0 min 698 W/m 16,7 km/h (3 Bft)
15.05.2015 16:12 16,9 C 15,6 C 56 % 1017,9 hPa 0,0 l/m 2 min 0 min 698 W/m 20,9 km/h (4 Bft)
15.05.2015 16:14 17,0 C 16,1 C 56 % 1018,0 hPa 0,0 l/m 2 min 0 min 696 W/m 27,2 km/h (4 Bft)
15.05.2015 16:16 16,9 C 15,6 C 55 % 1018,0 hPa 0,0 l/m 2 min 0 min 689 W/m 25,1 km/h (4 Bft)
15.05.2015 16:18 17,0 C 16,1 C 55 % 1018,0 hPa 0,0 l/m 2 min 0 min 688 W/m 23,0 km/h (4 Bft)
15.05.2015 16:20 17,0 C 16,1 C 55 % 1018,0 hPa 0,0 l/m 2 min 0 min 682 W/m 23,0 km/h (4 Bft)
15.05.2015 16:22 16,7 C 15,6 C 55 % 1018,1 hPa 0,0 l/m 2 min 0 min 679 W/m 27,2 km/h (4 Bft)
15.05.2015 16:24 16,7 C 15,6 C 56 % 1018,1 hPa 0,0 l/m 2 min 0 min 679 W/m 23,0 km/h (4 Bft)
15.05.2015 16:26 16,9 C 15,6 C 55 % 1018,2 hPa 0,0 l/m 2 min 0 min 677 W/m 23,0 km/h (4 Bft)
15.05.2015 16:28 16,8 C 15,6 C 55 % 1018,0 hPa 0,0 l/m 2 min 0 min 668 W/m 16,7 km/h (3 Bft)
15.05.2015 16:30 16,7 C 15,6 C 55 % 1018,0 hPa 0,0 l/m 2 min 0 min 666 W/m 20,9 km/h (4 Bft)
15.05.2015 16:32 16,9 C 15,6 C 57 % 1018,0 hPa 0,0 l/m 2 min 0 min 660 W/m 18,8 km/h (3 Bft)
15.05.2015 16:34 16,8 C 15,6 C 54 % 1018,0 hPa 0,0 l/m 2 min 0 min 655 W/m 23,0 km/h (4 Bft)
15.05.2015 16:36 16,8 C 15,6 C 55 % 1018,1 hPa 0,0 l/m 2 min 0 min 652 W/m 27,2 km/h (4 Bft)
15.05.2015 16:38 16,7 C 15,6 C 55 % 1018,1 hPa 0,0 l/m 2 min 0 min 648 W/m 25,1 km/h (4 Bft)
15.05.2015 16:40 16,6 C 15,6 C 54 % 1018,2 hPa 0,0 l/m 2 min 0 min 646 W/m 31,4 km/h (5 Bft)
15.05.2015 16:42 16,6 C 15,6 C 55 % 1018,2 hPa 0,0 l/m 2 min 0 min 641 W/m 25,1 km/h (4 Bft)
15.05.2015 16:44 16,5 C 15,6 C 54 % 1018,2 hPa 0,0 l/m 2 min 0 min 635 W/m 27,2 km/h (4 Bft)
15.05.2015 16:46 16,7 C 15,6 C 56 % 1018,2 hPa 0,0 l/m 2 min 0 min 631 W/m 18,8 km/h (3 Bft)
15.05.2015 16:48 16,7 C 15,6 C 53 % 1018,3 hPa 0,0 l/m 2 min 0 min 628 W/m 23,0 km/h (4 Bft)
15.05.2015 16:50 16,8 C 15,6 C 55 % 1018,2 hPa 0,0 l/m 2 min 0 min 621 W/m 23,0 km/h (4 Bft)
15.05.2015 16:52 16,7 C 15,6 C 53 % 1018,3 hPa 0,0 l/m 2 min 0 min 616 W/m 20,9 km/h (4 Bft)
15.05.2015 16:54 16,6 C 15,0 C 53 % 1018,2 hPa 0,0 l/m 2 min 0 min 611 W/m 29,3 km/h (5 Bft)
15.05.2015 16:56 16,4 C 15,0 C 53 % 1018,2 hPa 0,0 l/m 2 min 0 min 608 W/m 27,2 km/h (4 Bft)
15.05.2015 16:58 16,6 C 15,0 C 53 % 1018,4 hPa 0,0 l/m 2 min 0 min 605 W/m 25,1 km/h (4 Bft)
15.05.2015 17:00 16,5 C 15,0 C 53 % 1018,2 hPa 0,0 l/m 2 min 0 min 595 W/m 25,1 km/h (4 Bft)
15.05.2015 17:02 16,5 C 15,0 C 53 % 1018,3 hPa 0,0 l/m 2 min 0 min 595 W/m 27,2 km/h (4 Bft)
15.05.2015 17:04 16,5 C 15,0 C 53 % 1018,4 hPa 0,0 l/m 2 min 0 min 590 W/m 25,1 km/h (4 Bft)
15.05.2015 17:06 16,4 C 15,0 C 53 % 1018,3 hPa 0,0 l/m 2 min 0 min 586 W/m 18,8 km/h (3 Bft)
15.05.2015 17:08 16,3 C 15,0 C 53 % 1018,3 hPa 0,0 l/m 2 min 0 min 582 W/m 25,1 km/h (4 Bft)
15.05.2015 17:10 16,3 C 15,0 C 52 % 1018,3 hPa 0,0 l/m 2 min 0 min 577 W/m 20,9 km/h (4 Bft)
15.05.2015 17:12 16,3 C 15,0 C 53 % 1018,1 hPa 0,0 l/m 2 min 0 min 572 W/m 18,8 km/h (3 Bft)
15.05.2015 17:14 16,3 C 15,0 C 54 % 1018,2 hPa 0,0 l/m 2 min 0 min 566 W/m 23,0 km/h (4 Bft)
15.05.2015 17:16 16,1 C 14,4 C 55 % 1018,2 hPa 0,0 l/m 2 min 0 min 562 W/m 16,7 km/h (3 Bft)
15.05.2015 17:18 16,3 C 15,0 C 55 % 1018,2 hPa 0,0 l/m 2 min 0 min 553 W/m 18,8 km/h (3 Bft)
15.05.2015 17:20 16,4 C 15,0 C 55 % 1018,2 hPa 0,0 l/m 2 min 0 min 548 W/m 25,1 km/h (4 Bft)
15.05.2015 17:22 16,4 C 15,0 C 54 % 1018,2 hPa 0,0 l/m 2 min 0 min 544 W/m 18,8 km/h (3 Bft)
15.05.2015 17:24 16,4 C 15,0 C 53 % 1018,2 hPa 0,0 l/m 2 min 0 min 541 W/m 25,1 km/h (4 Bft)
15.05.2015 17:26 16,4 C 15,0 C 54 % 1018,3 hPa 0,0 l/m 2 min 0 min 535 W/m 20,9 km/h (4 Bft)
15.05.2015 17:28 16,3 C 14,4 C 54 % 1018,3 hPa 0,0 l/m 2 min 0 min 530 W/m 14,6 km/h (3 Bft)
15.05.2015 17:30 16,3 C 14,4 C 54 % 1018,4 hPa 0,0 l/m 2 min 0 min 526 W/m 20,9 km/h (4 Bft)
15.05.2015 17:32 16,2 C 14,4 C 55 % 1018,4 hPa 0,0 l/m 2 min 0 min 519 W/m 18,8 km/h (3 Bft)
15.05.2015 17:34 16,2 C 14,4 C 54 % 1018,4 hPa 0,0 l/m 2 min 0 min 518 W/m 18,8 km/h (3 Bft)
15.05.2015 17:36 16,3 C 14,4 C 55 % 1018,5 hPa 0,0 l/m 2 min 0 min 513 W/m 27,2 km/h (4 Bft)
15.05.2015 17:38 16,3 C 14,4 C 53 % 1018,5 hPa 0,0 l/m 2 min 0 min 507 W/m 20,9 km/h (4 Bft)
15.05.2015 17:40 16,4 C 14,4 C 55 % 1018,4 hPa 0,0 l/m 2 min 0 min 497 W/m 20,9 km/h (4 Bft)
15.05.2015 17:42 16,5 C 14,4 C 54 % 1018,4 hPa 0,0 l/m 2 min 0 min 491 W/m 16,7 km/h (3 Bft)
15.05.2015 17:44 16,4 C 13,9 C 53 % 1018,5 hPa 0,0 l/m 2 min 0 min 488 W/m 20,9 km/h (4 Bft)
15.05.2015 17:46 16,2 C 13,9 C 54 % 1018,4 hPa 0,0 l/m 2 min 0 min 483 W/m 18,8 km/h (3 Bft)
15.05.2015 17:48 16,2 C 13,9 C 54 % 1018,4 hPa 0,0 l/m 2 min 0 min 475 W/m 16,7 km/h (3 Bft)
15.05.2015 17:50 16,2 C 13,9 C 53 % 1018,5 hPa 0,0 l/m 2 min 0 min 475 W/m 18,8 km/h (3 Bft)
15.05.2015 17:52 16,1 C 13,9 C 53 % 1018,5 hPa 0,0 l/m 2 min 0 min 470 W/m 18,8 km/h (3 Bft)
15.05.2015 17:54 16,1 C 13,9 C 53 % 1018,6 hPa 0,0 l/m 2 min 0 min 463 W/m 20,9 km/h (4 Bft)
15.05.2015 17:56 16,1 C 13,9 C 53 % 1018,6 hPa 0,0 l/m 2 min 0 min 460 W/m 20,9 km/h (4 Bft)
15.05.2015 17:58 15,9 C 13,9 C 53 % 1018,7 hPa 0,0 l/m 2 min 0 min 454 W/m 23,0 km/h (4 Bft)
15.05.2015 18:00 15,9 C 13,9 C 53 % 1018,7 hPa 0,0 l/m 2 min 0 min 444 W/m 23,0 km/h (4 Bft)
15.05.2015 18:02 15,9 C 13,9 C 53 % 1018,7 hPa 0,0 l/m 2 min 0 min 441 W/m 16,7 km/h (3 Bft)
15.05.2015 18:06 15,9 C 13,9 C 53 % 1018,5 hPa 0,0 l/m 2 min 0 min 433 W/m 18,8 km/h (3 Bft)
15.05.2015 18:08 16,1 C 13,9 C 55 % 1018,5 hPa 0,0 l/m 2 min 0 min 427 W/m 16,7 km/h (3 Bft)
15.05.2015 18:10 16,2 C 13,9 C 54 % 1018,5 hPa 0,0 l/m 2 min 0 min 421 W/m 14,6 km/h (3 Bft)
15.05.2015 18:12 16,1 C 13,9 C 54 % 1018,6 hPa 0,0 l/m 2 min 0 min 415 W/m 16,7 km/h (3 Bft)
15.05.2015 18:14 16,2 C 13,9 C 54 % 1018,5 hPa 0,0 l/m 2 min 0 min 405 W/m 27,2 km/h (4 Bft)
15.05.2015 18:16 16,2 C 13,9 C 53 % 1018,6 hPa 0,0 l/m 2 min 0 min 404 W/m 25,1 km/h (4 Bft)
15.05.2015 18:18 16,2 C 13,9 C 54 % 1018,7 hPa 0,0 l/m 2 min 0 min 398 W/m 18,8 km/h (3 Bft)
15.05.2015 18:20 16,2 C 13,9 C 52 % 1018,6 hPa 0,0 l/m 2 min 0 min 394 W/m 12,6 km/h (3 Bft)
15.05.2015 18:22 16,1 C 13,9 C 53 % 1018,7 hPa 0,0 l/m 2 min 0 min 388 W/m 18,8 km/h (3 Bft)
15.05.2015 18:24 16,0 C 13,9 C 54 % 1018,7 hPa 0,0 l/m 2 min 0 min 383 W/m 18,8 km/h (3 Bft)
15.05.2015 18:26 15,9 C 13,9 C 54 % 1018,7 hPa 0,0 l/m 2 min 0 min 375 W/m 14,6 km/h (3 Bft)
15.05.2015 18:28 16,1 C 13,9 C 55 % 1018,6 hPa 0,0 l/m 2 min 0 min 370 W/m 14,6 km/h (3 Bft)
15.05.2015 18:30 15,9 C 13,9 C 54 % 1018,6 hPa 0,0 l/m 2 min 0 min 365 W/m 16,7 km/h (3 Bft)
15.05.2015 18:32 15,8 C 13,9 C 55 % 1018,6 hPa 0,0 l/m 2 min 0 min 359 W/m 27,2 km/h (4 Bft)
15.05.2015 18:34 15,9 C 13,9 C 56 % 1018,6 hPa 0,0 l/m 2 min 0 min 354 W/m 20,9 km/h (4 Bft)
15.05.2015 18:36 16,0 C 13,9 C 55 % 1018,7 hPa 0,0 l/m 2 min 0 min 346 W/m 18,8 km/h (3 Bft)
15.05.2015 18:38 16,1 C 13,9 C 57 % 1018,7 hPa 0,0 l/m 2 min 0 min 342 W/m 18,8 km/h (3 Bft)
15.05.2015 18:40 16,1 C 13,9 C 55 % 1018,8 hPa 0,0 l/m 2 min 0 min 335 W/m 18,8 km/h (3 Bft)
15.05.2015 18:42 16,1 C 13,9 C 56 % 1018,8 hPa 0,0 l/m 2 min 0 min 331 W/m 12,6 km/h (3 Bft)
15.05.2015 18:44 16,2 C 13,9 C 56 % 1018,9 hPa 0,0 l/m 2 min 0 min 328 W/m 10,5 km/h (2 Bft)
15.05.2015 18:46 16,2 C 13,9 C 55 % 1018,9 hPa 0,0 l/m 2 min 0 min 323 W/m 18,8 km/h (3 Bft)
15.05.2015 18:48 16,2 C 13,9 C 55 % 1019,0 hPa 0,0 l/m 2 min 0 min 317 W/m 20,9 km/h (4 Bft)
15.05.2015 18:50 16,1 C 13,9 C 54 % 1019,1 hPa 0,0 l/m 2 min 0 min 312 W/m 20,9 km/h (4 Bft)
15.05.2015 18:52 16,0 C 13,9 C 54 % 1019,0 hPa 0,0 l/m 2 min 0 min 306 W/m 12,6 km/h (3 Bft)
15.05.2015 18:54 16,0 C 13,9 C 54 % 1019,0 hPa 0,0 l/m 2 min 0 min 301 W/m 16,7 km/h (3 Bft)
15.05.2015 18:56 15,9 C 13,3 C 54 % 1019,0 hPa 0,0 l/m 2 min 0 min 294 W/m 23,0 km/h (4 Bft)
15.05.2015 18:58 15,9 C 13,3 C 54 % 1018,9 hPa 0,0 l/m 2 min 0 min 289 W/m 18,8 km/h (3 Bft)
15.05.2015 19:00 15,9 C 13,3 C 55 % 1019,0 hPa 0,0 l/m 2 min 0 min 282 W/m 8,4 km/h (2 Bft)
15.05.2015 19:02 15,9 C 13,3 C 55 % 1019,0 hPa 0,0 l/m 2 min 0 min 278 W/m 12,6 km/h (3 Bft)
15.05.2015 19:04 15,8 C 13,3 C 54 % 1019,0 hPa 0,0 l/m 2 min 0 min 273 W/m 16,7 km/h (3 Bft)
15.05.2015 19:06 15,8 C 13,3 C 55 % 1018,9 hPa 0,0 l/m 2 min 0 min 268 W/m 10,5 km/h (2 Bft)
15.05.2015 19:08 15,8 C 13,3 C 54 % 1018,9 hPa 0,0 l/m 2 min 0 min 261 W/m 16,7 km/h (3 Bft)
15.05.2015 19:10 15,8 C 13,3 C 54 % 1018,9 hPa 0,0 l/m 2 min 0 min 254 W/m 20,9 km/h (4 Bft)
15.05.2015 19:12 15,7 C 13,3 C 54 % 1018,9 hPa 0,0 l/m 2 min 0 min 247 W/m 16,7 km/h (3 Bft)
15.05.2015 19:14 15,6 C 13,3 C 55 % 1018,9 hPa 0,0 l/m 2 min 0 min 242 W/m 14,6 km/h (3 Bft)
15.05.2015 19:16 15,6 C 13,3 C 55 % 1018,9 hPa 0,0 l/m 2 min 0 min 233 W/m 12,6 km/h (3 Bft)
15.05.2015 19:18 15,5 C 13,3 C 56 % 1018,9 hPa 0,0 l/m 2 min 0 min 224 W/m 8,4 km/h (2 Bft)
15.05.2015 19:20 15,6 C 13,3 C 56 % 1018,9 hPa 0,0 l/m 2 min 0 min 216 W/m 12,6 km/h (3 Bft)
15.05.2015 19:22 15,6 C 13,3 C 54 % 1018,9 hPa 0,0 l/m 2 min 0 min 212 W/m 10,5 km/h (2 Bft)
15.05.2015 19:24 15,6 C 13,3 C 55 % 1018,9 hPa 0,0 l/m 2 min 0 min 205 W/m 16,7 km/h (3 Bft)
15.05.2015 19:26 15,7 C 13,3 C 53 % 1019,0 hPa 0,0 l/m 2 min 0 min 199 W/m 16,7 km/h (3 Bft)
15.05.2015 19:28 15,6 C 13,3 C 52 % 1019,0 hPa 0,0 l/m 2 min 0 min 191 W/m 14,6 km/h (3 Bft)
15.05.2015 19:30 15,6 C 13,3 C 52 % 1019,1 hPa 0,0 l/m 2 min 0 min 185 W/m 14,6 km/h (3 Bft)
15.05.2015 19:32 15,6 C 13,3 C 52 % 1019,1 hPa 0,0 l/m 2 min 0 min 179 W/m 14,6 km/h (3 Bft)
15.05.2015 19:34 15,5 C 13,3 C 52 % 1019,2 hPa 0,0 l/m 2 min 0 min 174 W/m 14,6 km/h (3 Bft)
15.05.2015 19:36 15,4 C 13,3 C 53 % 1019,2 hPa 0,0 l/m 2 min 0 min 168 W/m 14,6 km/h (3 Bft)
15.05.2015 19:38 15,4 C 12,8 C 55 % 1019,2 hPa 0,0 l/m 2 min 0 min 162 W/m 12,6 km/h (3 Bft)
15.05.2015 19:40 15,4 C 12,8 C 55 % 1019,2 hPa 0,0 l/m 2 min 0 min 155 W/m 12,6 km/h (3 Bft)
15.05.2015 19:42 15,4 C 12,8 C 55 % 1019,2 hPa 0,0 l/m 2 min 0 min 150 W/m 12,6 km/h (3 Bft)
15.05.2015 19:44 15,4 C 12,8 C 54 % 1019,2 hPa 0,0 l/m 2 min 0 min 144 W/m 14,6 km/h (3 Bft)
15.05.2015 19:46 15,4 C 12,8 C 54 % 1019,3 hPa 0,0 l/m 2 min 0 min 138 W/m 16,7 km/h (3 Bft)
15.05.2015 19:48 15,4 C 12,8 C 54 % 1019,2 hPa 0,0 l/m 2 min 0 min 121 W/m 12,6 km/h (3 Bft)
15.05.2015 19:50 15,3 C 12,8 C 54 % 1019,2 hPa 0,0 l/m 2 min 0 min 112 W/m 8,4 km/h (2 Bft)
15.05.2015 19:52 15,3 C 12,8 C 55 % 1019,2 hPa 0,0 l/m 2 min 0 min 108 W/m 10,5 km/h (2 Bft)
15.05.2015 19:54 15,2 C 12,8 C 54 % 1019,2 hPa 0,0 l/m 0 min 0 min 88 W/m 12,6 km/h (3 Bft)
15.05.2015 19:56 15,2 C 12,8 C 54 % 1019,2 hPa 0,0 l/m 0 min 0 min 82 W/m 12,6 km/h (3 Bft)
15.05.2015 19:58 15,2 C 12,8 C 54 % 1019,2 hPa 0,0 l/m 0 min 0 min 84 W/m 12,6 km/h (3 Bft)
15.05.2015 20:00 15,1 C 12,8 C 55 % 1019,3 hPa 0,0 l/m 0 min 0 min 58 W/m 14,6 km/h (3 Bft)
15.05.2015 20:02 15,1 C 12,8 C 55 % 1019,2 hPa 0,0 l/m 0 min 0 min 58 W/m 12,6 km/h (3 Bft)
15.05.2015 20:04 15,1 C 12,8 C 55 % 1019,2 hPa 0,0 l/m 0 min 0 min 79 W/m 10,5 km/h (2 Bft)
15.05.2015 20:06 15,1 C 12,8 C 54 % 1019,2 hPa 0,0 l/m 0 min 0 min 73 W/m 10,5 km/h (2 Bft)
15.05.2015 20:08 15,0 C 12,8 C 55 % 1019,1 hPa 0,0 l/m 0 min 0 min 59 W/m 8,4 km/h (2 Bft)
15.05.2015 20:10 14,9 C 12,8 C 55 % 1019,1 hPa 0,0 l/m 0 min 0 min 43 W/m 8,4 km/h (2 Bft)
15.05.2015 20:12 14,9 C 12,8 C 55 % 1019,1 hPa 0,0 l/m 0 min 0 min 50 W/m 4,2 km/h (1 Bft)
15.05.2015 20:14 14,8 C 12,8 C 56 % 1019,1 hPa 0,0 l/m 0 min 0 min 60 W/m 6,3 km/h (2 Bft)
15.05.2015 20:16 14,8 C 12,8 C 56 % 1019,1 hPa 0,0 l/m 0 min 0 min 65 W/m 6,3 km/h (2 Bft)
15.05.2015 20:18 14,8 C 12,8 C 56 % 1019,1 hPa 0,0 l/m 2 min 0 min 64 W/m 6,3 km/h (2 Bft)
15.05.2015 20:20 14,8 C 12,2 C 56 % 1019,2 hPa 0,0 l/m 0 min 0 min 61 W/m 6,3 km/h (2 Bft)
15.05.2015 20:22 14,7 C 12,2 C 56 % 1019,2 hPa 0,0 l/m 0 min 0 min 57 W/m 6,3 km/h (2 Bft)
15.05.2015 20:24 14,7 C 12,2 C 57 % 1019,3 hPa 0,0 l/m 0 min 0 min 54 W/m 10,5 km/h (2 Bft)
15.05.2015 20:26 14,7 C 12,2 C 57 % 1019,4 hPa 0,0 l/m 0 min 0 min 51 W/m 10,5 km/h (2 Bft)
15.05.2015 20:28 14,7 C 12,2 C 58 % 1019,4 hPa 0,0 l/m 0 min 0 min 42 W/m 10,5 km/h (2 Bft)
15.05.2015 20:30 14,7 C 12,2 C 57 % 1019,4 hPa 0,0 l/m 0 min 0 min 39 W/m 4,2 km/h (1 Bft)
15.05.2015 20:32 14,7 C 12,2 C 57 % 1019,5 hPa 0,0 l/m 0 min 0 min 38 W/m 6,3 km/h (2 Bft)
15.05.2015 20:34 14,6 C 12,2 C 58 % 1019,5 hPa 0,0 l/m 0 min 0 min 35 W/m 6,3 km/h (2 Bft)
15.05.2015 20:36 14,5 C 12,2 C 59 % 1019,4 hPa 0,0 l/m 0 min 0 min 32 W/m 6,3 km/h (2 Bft)
15.05.2015 20:38 14,4 C 12,2 C 58 % 1019,5 hPa 0,0 l/m 0 min 0 min 26 W/m 6,3 km/h (2 Bft)
15.05.2015 20:40 14,4 C 12,2 C 59 % 1019,5 hPa 0,0 l/m 0 min 0 min 25 W/m 8,4 km/h (2 Bft)
15.05.2015 20:42 14,3 C 12,2 C 60 % 1019,4 hPa 0,0 l/m 0 min 0 min 23 W/m 8,4 km/h (2 Bft)
15.05.2015 20:44 14,3 C 12,2 C 59 % 1019,5 hPa 0,0 l/m 0 min 0 min 21 W/m 8,4 km/h (2 Bft)
15.05.2015 20:46 14,3 C 12,2 C 59 % 1019,4 hPa 0,0 l/m 0 min 0 min 21 W/m 8,4 km/h (2 Bft)
15.05.2015 20:48 14,2 C 12,2 C 60 % 1019,5 hPa 0,0 l/m 0 min 0 min 21 W/m 6,3 km/h (2 Bft)
15.05.2015 20:50 14,2 C 12,2 C 60 % 1019,5 hPa 0,0 l/m 0 min 0 min 20 W/m 6,3 km/h (2 Bft)
15.05.2015 20:52 14,2 C 12,2 C 60 % 1019,5 hPa 0,0 l/m 0 min 0 min 19 W/m 6,3 km/h (2 Bft)
15.05.2015 20:54 14,2 C 12,2 C 61 % 1019,6 hPa 0,0 l/m 0 min 0 min 18 W/m 6,3 km/h (2 Bft)
15.05.2015 20:56 14,2 C 11,7 C 61 % 1019,5 hPa 0,0 l/m 0 min 0 min 15 W/m 4,2 km/h (1 Bft)
15.05.2015 20:58 14,1 C 11,7 C 61 % 1019,5 hPa 0,0 l/m 0 min 0 min 14 W/m 6,3 km/h (2 Bft)
15.05.2015 21:00 14,0 C 11,7 C 62 % 1019,6 hPa 0,0 l/m 0 min 0 min 12 W/m 4,2 km/h (1 Bft)
15.05.2015 21:02 13,9 C 11,7 C 62 % 1019,6 hPa 0,0 l/m 0 min 0 min 11 W/m 4,2 km/h (1 Bft)
15.05.2015 21:04 13,8 C 11,7 C 63 % 1019,6 hPa 0,0 l/m 0 min 0 min 11 W/m 4,2 km/h (1 Bft)
15.05.2015 21:06 13,6 C 11,7 C 63 % 1019,6 hPa 0,0 l/m 0 min 0 min 9 W/m 4,2 km/h (1 Bft)
15.05.2015 21:08 13,6 C 11,7 C 63 % 1019,6 hPa 0,0 l/m 0 min 0 min 9 W/m 4,2 km/h (1 Bft)
15.05.2015 21:10 13,5 C 11,1 C 63 % 1019,6 hPa 0,0 l/m 0 min 0 min 8 W/m 4,2 km/h (1 Bft)
15.05.2015 21:12 13,5 C 11,1 C 63 % 1019,8 hPa 0,0 l/m 0 min 0 min 7 W/m 6,3 km/h (2 Bft)
15.05.2015 21:14 13,5 C 11,1 C 63 % 1019,9 hPa 0,0 l/m 0 min 0 min 6 W/m 6,3 km/h (2 Bft)
15.05.2015 21:16 13,5 C 11,1 C 64 % 1019,9 hPa 0,0 l/m 0 min 0 min 5 W/m 6,3 km/h (2 Bft)
15.05.2015 21:18 13,4 C 11,1 C 64 % 1019,9 hPa 0,0 l/m 0 min 0 min 5 W/m 4,2 km/h (1 Bft)
15.05.2015 21:20 13,3 C 11,1 C 64 % 1020,0 hPa 0,0 l/m 0 min 0 min 5 W/m 6,3 km/h (2 Bft)
15.05.2015 21:22 13,3 C 11,1 C 64 % 1020,0 hPa 0,0 l/m 0 min 0 min 1 W/m 6,3 km/h (2 Bft)
15.05.2015 21:24 13,2 C 11,1 C 65 % 1020,0 hPa 0,0 l/m 0 min 0 min 0 W/m 6,3 km/h (2 Bft)
15.05.2015 21:26 13,2 C 11,1 C 65 % 1020,0 hPa 0,0 l/m 0 min 0 min 0 W/m 6,3 km/h (2 Bft)
15.05.2015 21:28 13,1 C 11,1 C 65 % 1020,1 hPa 0,0 l/m 0 min 0 min 0 W/m 2,1 km/h (1 Bft)
15.05.2015 21:30 13,0 C 11,1 C 66 % 1020,0 hPa 0,0 l/m 0 min 0 min 0 W/m 2,1 km/h (1 Bft)
15.05.2015 21:32 12,8 C 10,6 C 66 % 1020,1 hPa 0,0 l/m 0 min 0 min 0 W/m 2,1 km/h (1 Bft)
15.05.2015 21:34 12,8 C 10,6 C 67 % 1020,1 hPa 0,0 l/m 0 min 0 min 0 W/m 2,1 km/h (1 Bft)
15.05.2015 21:36 12,7 C 10,6 C 68 % 1020,1 hPa 0,0 l/m 0 min 0 min 0 W/m 4,2 km/h (1 Bft)
15.05.2015 21:38 12,6 C 10,6 C 68 % 1020,1 hPa 0,0 l/m 0 min 0 min 0 W/m 4,2 km/h (1 Bft)
15.05.2015 21:40 12,4 C 10,6 C 69 % 1020,1 hPa 0,0 l/m 0 min 0 min 0 W/m 4,2 km/h (1 Bft)
15.05.2015 21:42 12,3 C 10,6 C 70 % 1020,1 hPa 0,0 l/m 0 min 0 min 0 W/m 2,1 km/h (1 Bft)
15.05.2015 21:44 12,2 C 10,6 C 70 % 1020,1 hPa 0,0 l/m 0 min 0 min 0 W/m 6,3 km/h (2 Bft)
15.05.2015 21:46 12,1 C 10,6 C 70 % 1020,1 hPa 0,0 l/m 0 min 0 min 0 W/m 4,2 km/h (1 Bft)
15.05.2015 21:48 12,0 C 10,6 C 70 % 1020,1 hPa 0,0 l/m 0 min 0 min 0 W/m 6,3 km/h (2 Bft)
15.05.2015 21:50 11,9 C 10,6 C 71 % 1020,1 hPa 0,0 l/m 0 min 0 min 0 W/m 8,4 km/h (2 Bft)
15.05.2015 21:52 11,8 C 10,0 C 71 % 1020,2 hPa 0,0 l/m 0 min 0 min 0 W/m 12,6 km/h (3 Bft)
15.05.2015 21:54 11,8 C 10,0 C 71 % 1020,3 hPa 0,0 l/m 0 min 0 min 0 W/m 16,7 km/h (3 Bft)
15.05.2015 21:56 11,8 C 10,6 C 71 % 1020,3 hPa 0,0 l/m 0 min 0 min 0 W/m 10,5 km/h (2 Bft)
15.05.2015 21:58 11,8 C 10,6 C 71 % 1020,3 hPa 0,0 l/m 0 min 0 min 0 W/m 14,6 km/h (3 Bft)
15.05.2015 22:00 11,9 C 10,6 C 71 % 1020,3 hPa 0,0 l/m 0 min 0 min 0 W/m 12,6 km/h (3 Bft)
15.05.2015 22:02 11,9 C 10,6 C 71 % 1020,3 hPa 0,0 l/m 0 min 0 min 0 W/m 8,4 km/h (2 Bft)
15.05.2015 22:04 11,9 C 10,6 C 71 % 1020,3 hPa 0,0 l/m 0 min 0 min 0 W/m 8,4 km/h (2 Bft)
15.05.2015 22:06 12,0 C 10,6 C 71 % 1020,3 hPa 0,0 l/m 0 min 0 min 0 W/m 10,5 km/h (2 Bft)
15.05.2015 22:08 11,9 C 10,6 C 71 % 1020,4 hPa 0,0 l/m 0 min 0 min 0 W/m 8,4 km/h (2 Bft)
15.05.2015 22:10 11,9 C 10,6 C 71 % 1020,5 hPa 0,0 l/m 0 min 0 min 0 W/m 8,4 km/h (2 Bft)
15.05.2015 22:12 11,9 C 10,6 C 71 % 1020,5 hPa 0,0 l/m 0 min 0 min 0 W/m 8,4 km/h (2 Bft)
15.05.2015 22:14 11,8 C 10,6 C 72 % 1020,5 hPa 0,0 l/m 0 min 0 min 0 W/m 10,5 km/h (2 Bft)
15.05.2015 22:16 11,8 C 10,6 C 72 % 1020,5 hPa 0,0 l/m 0 min 0 min 0 W/m 6,3 km/h (2 Bft)
15.05.2015 22:18 11,8 C 10,0 C 72 % 1020,4 hPa 0,0 l/m 0 min 0 min 0 W/m 10,5 km/h (2 Bft)
15.05.2015 22:20 11,8 C 10,0 C 72 % 1020,5 hPa 0,0 l/m 0 min 0 min 0 W/m 10,5 km/h (2 Bft)
15.05.2015 22:22 11,8 C 10,0 C 72 % 1020,5 hPa 0,0 l/m 0 min 0 min 0 W/m 6,3 km/h (2 Bft)
15.05.2015 22:24 11,8 C 10,0 C 72 % 1020,5 hPa 0,0 l/m 0 min 0 min 0 W/m 6,3 km/h (2 Bft)
15.05.2015 22:26 11,8 C 10,0 C 72 % 1020,6 hPa 0,0 l/m 0 min 0 min 0 W/m 10,5 km/h (2 Bft)
15.05.2015 22:28 11,8 C 10,0 C 72 % 1020,6 hPa 0,0 l/m 0 min 0 min 0 W/m 8,4 km/h (2 Bft)
15.05.2015 22:30 11,7 C 10,0 C 72 % 1020,6 hPa 0,0 l/m 0 min 0 min 0 W/m 6,3 km/h (2 Bft)
15.05.2015 22:32 11,7 C 10,0 C 72 % 1020,6 hPa 0,0 l/m 0 min 0 min 0 W/m 8,4 km/h (2 Bft)
15.05.2015 22:34 11,7 C 10,0 C 72 % 1020,6 hPa 0,0 l/m 0 min 0 min 0 W/m 10,5 km/h (2 Bft)
15.05.2015 22:36 11,6 C 10,0 C 72 % 1020,6 hPa 0,0 l/m 0 min 0 min 0 W/m 10,5 km/h (2 Bft)
15.05.2015 22:38 11,6 C 10,0 C 72 % 1020,6 hPa 0,0 l/m 0 min 0 min 0 W/m 6,3 km/h (2 Bft)
15.05.2015 22:40 11,6 C 10,0 C 73 % 1020,6 hPa 0,0 l/m 0 min 0 min 0 W/m 12,6 km/h (3 Bft)
15.05.2015 22:42 11,5 C 10,0 C 73 % 1020,6 hPa 0,0 l/m 0 min 0 min 0 W/m 12,6 km/h (3 Bft)
15.05.2015 22:44 11,4 C 10,0 C 73 % 1020,7 hPa 0,0 l/m 0 min 0 min 0 W/m 4,2 km/h (1 Bft)
15.05.2015 22:46 11,4 C 10,0 C 73 % 1020,7 hPa 0,0 l/m 0 min 0 min 0 W/m 6,3 km/h (2 Bft)
15.05.2015 22:48 11,3 C 10,0 C 73 % 1020,7 hPa 0,0 l/m 0 min 0 min 0 W/m 2,1 km/h (1 Bft)
15.05.2015 22:50 11,2 C 10,0 C 74 % 1020,8 hPa 0,0 l/m 0 min 0 min 0 W/m 2,1 km/h (1 Bft)
15.05.2015 22:52 11,2 C 10,0 C 74 % 1020,8 hPa 0,0 l/m 0 min 0 min 0 W/m 4,2 km/h (1 Bft)
15.05.2015 22:54 11,1 C 10,0 C 74 % 1020,8 hPa 0,0 l/m 0 min 0 min 0 W/m 2,1 km/h (1 Bft)
15.05.2015 22:56 11,0 C 10,0 C 75 % 1020,7 hPa 0,0 l/m 0 min 0 min 0 W/m 2,1 km/h (1 Bft)
15.05.2015 22:58 10,9 C 9,4 C 75 % 1020,8 hPa 0,0 l/m 0 min 0 min 0 W/m 4,2 km/h (1 Bft)
15.05.2015 23:00 10,9 C 9,4 C 75 % 1020,9 hPa 0,0 l/m 0 min 0 min 0 W/m 2,1 km/h (1 Bft)
15.05.2015 23:02 10,8 C 9,4 C 76 % 1020,9 hPa 0,0 l/m 0 min 0 min 0 W/m 2,1 km/h (1 Bft)
15.05.2015 23:04 10,8 C 9,4 C 76 % 1020,9 hPa 0,0 l/m 0 min 0 min 0 W/m 2,1 km/h (1 Bft)
15.05.2015 23:06 10,7 C 9,4 C 76 % 1020,9 hPa 0,0 l/m 0 min 0 min 0 W/m 2,1 km/h (1 Bft)
15.05.2015 23:08 10,7 C 9,4 C 77 % 1021,0 hPa 0,0 l/m 0 min 0 min 0 W/m 2,1 km/h (1 Bft)
15.05.2015 23:10 10,6 C 9,4 C 76 % 1021,0 hPa 0,0 l/m 0 min 0 min 0 W/m 2,1 km/h (1 Bft)
15.05.2015 23:12 10,6 C 9,4 C 77 % 1021,0 hPa 0,0 l/m 0 min 0 min 0 W/m 4,2 km/h (1 Bft)
15.05.2015 23:14 10,5 C 9,4 C 77 % 1021,0 hPa 0,0 l/m 0 min 0 min 0 W/m 2,1 km/h (1 Bft)
15.05.2015 23:16 10,4 C 9,4 C 77 % 1021,1 hPa 0,0 l/m 0 min 0 min 0 W/m 4,2 km/h (1 Bft)
15.05.2015 23:18 10,4 C 9,4 C 77 % 1021,1 hPa 0,0 l/m 0 min 0 min 0 W/m 2,1 km/h (1 Bft)
15.05.2015 23:20 10,4 C 9,4 C 77 % 1021,1 hPa 0,0 l/m 0 min 0 min 0 W/m 2,1 km/h (1 Bft)
15.05.2015 23:22 10,3 C 9,4 C 77 % 1021,1 hPa 0,0 l/m 0 min 0 min 0 W/m 2,1 km/h (1 Bft)
15.05.2015 23:24 10,3 C 9,4 C 77 % 1021,1 hPa 0,0 l/m 0 min 0 min 0 W/m 6,3 km/h (2 Bft)
15.05.2015 23:26 10,2 C 9,4 C 78 % 1021,2 hPa 0,0 l/m 0 min 0 min 0 W/m 4,2 km/h (1 Bft)
15.05.2015 23:28 10,2 C 9,4 C 78 % 1021,2 hPa 0,0 l/m 0 min 0 min 0 W/m 6,3 km/h (2 Bft)
15.05.2015 23:30 10,2 C 9,4 C 78 % 1021,2 hPa 0,0 l/m 0 min 0 min 0 W/m 4,2 km/h (1 Bft)
15.05.2015 23:32 10,1 C 9,4 C 78 % 1021,2 hPa 0,0 l/m 0 min 0 min 0 W/m 4,2 km/h (1 Bft)
15.05.2015 23:34 10,1 C 9,4 C 78 % 1021,3 hPa 0,0 l/m 0 min 0 min 0 W/m 4,2 km/h (1 Bft)
15.05.2015 23:36 10,1 C 8,9 C 78 % 1021,3 hPa 0,0 l/m 0 min 0 min 0 W/m 2,1 km/h (1 Bft)
15.05.2015 23:38 10,0 C 8,9 C 79 % 1021,4 hPa 0,0 l/m 0 min 0 min 0 W/m 2,1 km/h (1 Bft)
15.05.2015 23:40 10,0 C 8,9 C 79 % 1021,3 hPa 0,0 l/m 0 min 0 min 0 W/m 2,1 km/h (1 Bft)
15.05.2015 23:42 9,9 C 8,9 C 79 % 1021,3 hPa 0,0 l/m 0 min 0 min 0 W/m 2,1 km/h (1 Bft)
15.05.2015 23:44 9,9 C 8,9 C 79 % 1021,3 hPa 0,0 l/m 0 min 0 min 0 W/m 2,1 km/h (1 Bft)
15.05.2015 23:46 9,9 C 8,9 C 79 % 1021,3 hPa 0,0 l/m 0 min 0 min 0 W/m 2,1 km/h (1 Bft)
15.05.2015 23:48 9,9 C 8,9 C 79 % 1021,3 hPa 0,0 l/m 0 min 0 min 0 W/m 4,2 km/h (1 Bft)
15.05.2015 23:50 9,9 C 8,9 C 79 % 1021,3 hPa 0,0 l/m 0 min 0 min 0 W/m 2,1 km/h (1 Bft)
15.05.2015 23:52 9,8 C 8,9 C 79 % 1021,3 hPa 0,0 l/m 0 min 0 min 0 W/m 4,2 km/h (1 Bft)
15.05.2015 23:54 9,8 C 8,9 C 79 % 1021,3 hPa 0,0 l/m 0 min 0 min 0 W/m 2,1 km/h (1 Bft)
15.05.2015 23:56 9,7 C 8,9 C 79 % 1021,2 hPa 0,0 l/m 0 min 0 min 0 W/m 2,1 km/h (1 Bft)
15.05.2015 23:58 9,7 C 8,9 C 79 % 1021,3 hPa 0,0 l/m 0 min 0 min 0 W/m 2,1 km/h (1 Bft)
_ Min-Zeit 08:18 06:28 15:22 00:00 - - - - 21:28
Minimum _ 8,7 C 8,9 C 51 % 1010,2 hPa - - - - 2,1 km/h (1 Bft)
_ Max-Zeit 15:20 13:10 07:26 23:38 00:00 09:22 00:58 13:08 12:58
Maximum _ 18,2 C 20,0 C 84 % 1021,4 hPa 0,0 l/m 2 min 2 min 854 W/m 37,7 km/h
N-NO (5 Bft)
Durchschnitt _ 13,4 C 12,2 C 67 % 1015,8 hPa #0,0 l/m #10:28 h #8 min. 439 W/m 17,0 km/h (3 Bft)
© 2015 W. Hausmann